Time,TemperatureF,DewpointF,PressureIn,WindDirection,WindDirectionDegrees,WindSpeedMPH,WindSpeedGustMPH,Humidity,HourlyPrecipIn,Conditions,Clouds,dailyrainin,SoftwareType,DateUTC
2013-06-14 00:00:00,65.4,47.3,30.02,SSE,149,0.0,0.0,52,0.00,SCT,,0.00,WeatherDisplay:10.37,2013-06-14 07:00:00,
2013-06-14 00:02:00,65.2,47.1,30.02,SSE,149,0.0,0.0,52,0.00,SCT,,0.00,WeatherDisplay:10.37,2013-06-14 07:02:00,
2013-06-14 00:04:00,65.2,47.6,30.02,SSE,149,0.0,0.0,53,0.00,SCT,,0.00,WeatherDisplay:10.37,2013-06-14 07:04:00,
2013-06-14 00:06:00,65.1,47.5,30.02,SSE,149,0.0,0.0,53,0.00,SCT,,0.00,WeatherDisplay:10.37,2013-06-14 07:06:00,
2013-06-14 00:07:00,65.1,47.0,30.02,SSE,149,0.0,0.0,52,0.00,SCT,,0.00,WeatherDisplay:10.37,2013-06-14 07:07:00,
2013-06-14 00:10:00,65.0,47.4,30.02,SSE,149,0.0,0.0,53,0.00,SCT,,0.00,WeatherDisplay:10.37,2013-06-14 07:10:00,
2013-06-14 00:11:00,65.0,46.9,30.02,SSE,149,0.0,0.0,52,0.00,SCT,,0.00,WeatherDisplay:10.37,2013-06-14 07:11:00,
2013-06-14 00:12:00,65.0,46.9,30.02,SSE,149,0.0,0.0,52,0.00,SCT,,0.00,WeatherDisplay:10.37,2013-06-14 07:12:00,
2013-06-14 00:14:00,64.9,47.4,30.02,SSE,149,0.0,0.0,53,0.00,SCT,,0.00,WeatherDisplay:10.37,2013-06-14 07:14:00,
2013-06-14 00:15:00,64.9,47.4,30.02,SSE,149,0.0,0.0,53,0.00,SCT,,0.00,WeatherDisplay:10.37,2013-06-14 07:15:00,
2013-06-14 00:17:00,64.8,47.3,30.02,SSE,149,0.0,0.0,53,0.00,SCT,,0.00,WeatherDisplay:10.37,2013-06-14 07:17:00,
2013-06-14 00:19:00,64.7,47.2,30.02,SSE,149,0.0,0.0,53,0.00,SCT,,0.00,WeatherDisplay:10.37,2013-06-14 07:19:00,
2013-06-14 00:20:00,64.7,47.2,30.02,SSE,149,0.0,0.0,53,0.00,SCT,,0.00,WeatherDisplay:10.37,2013-06-14 07:20:00,
2013-06-14 00:24:00,64.5,47.0,30.02,SSE,149,0.0,0.0,53,0.00,SCT,,0.00,WeatherDisplay:10.37,2013-06-14 07:24:00,
2013-06-14 00:25:00,64.5,47.0,30.02,SSE,149,0.0,0.0,53,0.00,SCT,,0.00,WeatherDisplay:10.37,2013-06-14 07:25:00,
2013-06-14 00:26:00,64.4,46.9,30.02,SSE,149,0.0,0.0,53,0.00,SCT,,0.00,WeatherDisplay:10.37,2013-06-14 07:26:00,
2013-06-14 00:29:00,64.4,46.9,30.02,SSE,149,0.0,0.0,53,0.00,SCT,,0.00,WeatherDisplay:10.37,2013-06-14 07:29:00,
2013-06-14 00:30:00,64.4,46.9,30.02,SSE,149,0.0,0.0,53,0.00,SCT,,0.00,WeatherDisplay:10.37,2013-06-14 07:30:00,
2013-06-14 00:31:00,64.4,47.4,30.02,SSE,149,0.0,0.0,54,0.00,SCT,,0.00,WeatherDisplay:10.37,2013-06-14 07:31:00,
2013-06-14 00:33:00,64.3,47.3,30.02,SSE,149,0.0,0.0,54,0.00,SCT,,0.00,WeatherDisplay:10.37,2013-06-14 07:33:00,
2013-06-14 00:35:00,64.3,47.3,30.02,SSE,149,0.0,0.0,54,0.00,SCT,,0.00,WeatherDisplay:10.37,2013-06-14 07:35:00,
2013-06-14 00:36:00,64.2,47.2,30.02,SSE,149,0.0,0.0,54,0.00,SCT,,0.00,WeatherDisplay:10.37,2013-06-14 07:36:00,
2013-06-14 00:38:00,64.1,47.1,30.02,SSE,149,0.0,0.0,54,0.00,SCT,,0.00,WeatherDisplay:10.37,2013-06-14 07:38:00,
2013-06-14 00:40:00,64.1,47.1,30.02,SSE,149,0.0,0.0,54,0.00,SCT,,0.00,WeatherDisplay:10.37,2013-06-14 07:40:00,
2013-06-14 00:41:00,64.1,47.1,30.02,SSE,149,0.0,0.0,54,0.00,SCT,,0.00,WeatherDisplay:10.37,2013-06-14 07:41:00,
2013-06-14 00:42:00,64.1,47.1,30.02,SSE,149,0.0,0.0,54,0.00,SCT,,0.00,WeatherDisplay:10.37,2013-06-14 07:42:00,
2013-06-14 00:44:00,64.1,47.1,30.02,SSE,149,0.0,0.0,54,0.00,SCT,,0.00,WeatherDisplay:10.37,2013-06-14 07:44:00,
2013-06-14 00:46:00,64.0,47.0,30.02,SSE,149,0.0,0.0,54,0.00,SCT,,0.00,WeatherDisplay:10.37,2013-06-14 07:46:00,
2013-06-14 00:47:00,64.0,47.0,30.02,SSE,149,0.0,0.0,54,0.00,SCT,,0.00,WeatherDisplay:10.37,2013-06-14 07:47:00,
2013-06-14 00:48:00,63.9,46.9,30.02,SSE,149,0.0,0.0,54,0.00,SCT,,0.00,WeatherDisplay:10.37,2013-06-14 07:48:00,
2013-06-14 00:49:00,63.9,46.9,30.01,SSE,149,0.0,0.0,54,0.00,SCT,,0.00,WeatherDisplay:10.37,2013-06-14 07:49:00,
2013-06-14 00:51:00,63.9,46.9,30.02,SSE,149,0.0,0.0,54,0.00,SCT,,0.00,WeatherDisplay:10.37,2013-06-14 07:51:00,
2013-06-14 00:52:00,63.8,47.3,30.02,SSE,149,0.0,0.0,55,0.00,SCT,,0.00,WeatherDisplay:10.37,2013-06-14 07:52:00,
2013-06-14 00:53:00,63.8,46.8,30.02,SSE,149,0.0,0.0,54,0.00,SCT,,0.00,WeatherDisplay:10.37,2013-06-14 07:53:00,
2013-06-14 00:54:00,63.7,47.2,30.02,SSE,149,0.0,0.0,55,0.00,SCT,,0.00,WeatherDisplay:10.37,2013-06-14 07:54:00,
2013-06-14 00:56:00,63.5,47.0,30.01,SSE,149,0.0,0.0,55,0.00,SCT,,0.00,WeatherDisplay:10.37,2013-06-14 07:56:00,
2013-06-14 00:57:00,63.5,47.0,30.01,SSE,149,0.0,0.0,55,0.00,SCT,,0.00,WeatherDisplay:10.37,2013-06-14 07:57:00,
2013-06-14 00:59:00,63.5,47.0,30.01,SSE,149,0.0,0.0,55,0.00,SCT,,0.00,WeatherDisplay:10.37,2013-06-14 07:59:00,
2013-06-14 01:00:00,63.4,46.9,30.01,SSE,149,0.0,0.0,55,0.00,SCT,,0.00,WeatherDisplay:10.37,2013-06-14 08:00:00,
2013-06-14 01:01:00,63.3,46.9,30.01,SSE,149,0.0,0.0,55,0.00,SCT,,0.00,WeatherDisplay:10.37,2013-06-14 08:01:00,
2013-06-14 01:04:00,63.1,47.1,30.01,SSE,149,0.0,0.0,56,0.00,SCT,,0.00,WeatherDisplay:10.37,2013-06-14 08:04:00,
2013-06-14 01:05:00,63.0,46.6,30.01,SSE,149,0.0,0.0,55,0.00,SCT,,0.00,WeatherDisplay:10.37,2013-06-14 08:05:00,
2013-06-14 01:06:00,63.0,47.1,30.01,SSE,149,0.0,0.0,56,0.00,SCT,,0.00,WeatherDisplay:10.37,2013-06-14 08:06:00,
2013-06-14 01:08:00,63.0,47.1,30.01,SSE,149,0.0,0.0,56,0.00,SCT,,0.00,WeatherDisplay:10.37,2013-06-14 08:08:00,
2013-06-14 01:09:00,63.0,47.1,30.01,SSE,149,0.0,0.0,56,0.00,SCT,,0.00,WeatherDisplay:10.37,2013-06-14 08:09:00,
2013-06-14 01:10:00,63.0,47.1,30.01,SSE,149,0.0,0.0,56,0.00,SCT,,0.00,WeatherDisplay:10.37,2013-06-14 08:10:00,
2013-06-14 01:12:00,63.0,47.1,30.01,SSE,149,0.0,0.0,56,0.00,SCT,,0.00,WeatherDisplay:10.37,2013-06-14 08:12:00,
2013-06-14 01:13:00,63.0,47.1,30.01,SSE,149,0.0,0.0,56,0.00,SCT,,0.00,WeatherDisplay:10.37,2013-06-14 08:13:00,
2013-06-14 01:15:00,63.0,47.1,30.01,SSE,149,0.0,0.0,56,0.00,SCT,,0.00,WeatherDisplay:10.37,2013-06-14 08:15:00,
2013-06-14 01:16:00,62.9,47.0,30.00,SSE,149,0.0,0.0,56,0.00,SCT,,0.00,WeatherDisplay:10.37,2013-06-14 08:16:00,
2013-06-14 01:17:00,62.9,47.0,30.00,SSE,149,0.0,0.0,56,0.00,SCT,,0.00,WeatherDisplay:10.37,2013-06-14 08:17:00,
2013-06-14 01:19:00,62.8,46.9,30.01,SSE,149,0.0,0.0,56,0.00,SCT,,0.00,WeatherDisplay:10.37,2013-06-14 08:19:00,
2013-06-14 01:20:00,62.8,46.9,30.00,SSE,149,0.0,0.0,56,0.00,SCT,,0.00,WeatherDisplay:10.37,2013-06-14 08:20:00,
2013-06-14 01:22:00,62.8,47.3,30.00,SSE,149,0.0,0.0,57,0.00,SCT,,0.00,WeatherDisplay:10.37,2013-06-14 08:22:00,
2013-06-14 01:23:00,62.7,47.2,30.00,SSE,149,0.0,0.0,57,0.00,SCT,,0.00,WeatherDisplay:10.37,2013-06-14 08:23:00,
2013-06-14 01:24:00,62.6,47.1,30.00,SSE,149,0.0,0.0,57,0.00,SCT,,0.00,WeatherDisplay:10.37,2013-06-14 08:24:00,
2013-06-14 01:26:00,62.6,47.1,30.00,SSE,149,0.0,0.0,57,0.00,SCT,,0.00,WeatherDisplay:10.37,2013-06-14 08:26:00,
2013-06-14 01:27:00,62.5,47.1,30.00,SSE,149,0.0,0.0,57,0.00,SCT,,0.00,WeatherDisplay:10.37,2013-06-14 08:27:00,
2013-06-14 01:28:00,62.5,47.1,30.00,SSE,149,0.0,0.0,57,0.00,SCT,,0.00,WeatherDisplay:10.37,2013-06-14 08:28:00,
2013-06-14 01:31:00,62.4,47.0,30.00,SSE,149,0.0,0.0,57,0.00,SCT,,0.00,WeatherDisplay:10.37,2013-06-14 08:31:00,
2013-06-14 01:32:00,62.4,47.0,30.00,SSE,149,0.0,0.0,57,0.00,SCT,,0.00,WeatherDisplay:10.37,2013-06-14 08:32:00,
2013-06-14 01:33:00,62.4,47.0,30.00,SSE,149,0.0,0.0,57,0.00,SCT,,0.00,WeatherDisplay:10.37,2013-06-14 08:33:00,
2013-06-14 01:36:00,62.4,47.0,30.00,SSE,149,0.0,0.0,57,0.00,SCT,,0.00,WeatherDisplay:10.37,2013-06-14 08:36:00,
2013-06-14 01:37:00,62.4,47.4,30.00,SSE,149,0.0,0.0,58,0.00,SCT,,0.00,WeatherDisplay:10.37,2013-06-14 08:37:00,
2013-06-14 01:38:00,62.4,47.0,30.00,SSE,149,0.0,0.0,57,0.00,SCT,,0.00,WeatherDisplay:10.37,2013-06-14 08:38:00,
2013-06-14 01:39:00,62.4,47.0,30.00,SSE,149,0.0,0.0,57,0.00,SCT,,0.00,WeatherDisplay:10.37,2013-06-14 08:39:00,
2013-06-14 01:40:00,62.4,47.0,30.00,SSE,149,0.0,0.0,57,0.00,SCT,,0.00,WeatherDisplay:10.37,2013-06-14 08:40:00,
2013-06-14 01:43:00,62.2,46.8,30.00,SSE,149,0.0,0.0,57,0.00,SCT,,0.00,WeatherDisplay:10.37,2013-06-14 08:43:00,
2013-06-14 01:45:00,62.2,47.2,30.00,SSE,149,0.0,0.0,58,0.00,SCT,,0.00,WeatherDisplay:10.37,2013-06-14 08:45:00,
2013-06-14 01:46:00,62.0,47.0,30.00,SSE,149,0.0,0.0,58,0.00,SCT,,0.00,WeatherDisplay:10.37,2013-06-14 08:46:00,
2013-06-14 01:48:00,61.9,47.0,30.00,SSE,149,0.0,0.0,58,0.00,SCT,,0.00,WeatherDisplay:10.37,2013-06-14 08:48:00,
2013-06-14 01:49:00,61.9,47.0,30.00,SSE,149,0.0,0.0,58,0.00,SCT,,0.00,WeatherDisplay:10.37,2013-06-14 08:49:00,
2013-06-14 01:50:00,61.9,47.0,30.00,SSE,149,0.0,0.0,58,0.00,SCT,,0.00,WeatherDisplay:10.37,2013-06-14 08:50:00,
2013-06-14 01:52:00,61.8,46.9,30.00,SSE,149,0.0,0.0,58,0.00,SCT,,0.00,WeatherDisplay:10.37,2013-06-14 08:52:00,
2013-06-14 01:53:00,61.7,46.8,30.00,SSE,149,0.0,0.0,58,0.00,SCT,,0.00,WeatherDisplay:10.37,2013-06-14 08:53:00,
2013-06-14 01:54:00,61.8,46.9,30.00,SSE,149,0.0,0.0,58,0.00,SCT,,0.00,WeatherDisplay:10.37,2013-06-14 08:54:00,
2013-06-14 01:55:00,61.8,46.9,30.00,SSE,149,0.0,0.0,58,0.00,SCT,,0.00,WeatherDisplay:10.37,2013-06-14 08:55:00,
2013-06-14 01:57:00,61.8,46.9,30.00,SSE,149,0.0,0.0,58,0.00,SCT,,0.00,WeatherDisplay:10.37,2013-06-14 08:57:00,
2013-06-14 01:59:00,61.6,46.7,30.00,SSE,149,0.0,0.0,58,0.00,SCT,,0.00,WeatherDisplay:10.37,2013-06-14 08:59:00,
2013-06-14 02:00:00,61.6,46.7,29.99,SSE,149,0.0,0.0,58,0.00,SCT,,0.00,WeatherDisplay:10.37,2013-06-14 09:00:00,
2013-06-14 02:01:00,61.5,46.6,29.99,SSE,149,0.0,0.0,58,0.00,SCT,,0.00,WeatherDisplay:10.37,2013-06-14 09:01:00,
2013-06-14 02:02:00,61.5,46.6,30.00,SSE,149,0.0,0.0,58,0.00,SCT,,0.00,WeatherDisplay:10.37,2013-06-14 09:02:00,
2013-06-14 02:03:00,61.4,46.5,30.00,SSE,149,0.0,0.0,58,0.00,SCT,,0.00,WeatherDisplay:10.37,2013-06-14 09:03:00,
2013-06-14 02:04:00,61.3,46.8,29.99,SSE,149,0.0,0.0,59,0.00,SCT,,0.00,WeatherDisplay:10.37,2013-06-14 09:04:00,
2013-06-14 02:06:00,61.3,46.8,29.99,SSE,149,0.0,0.0,59,0.00,SCT,,0.00,WeatherDisplay:10.37,2013-06-14 09:06:00,
2013-06-14 02:08:00,61.2,46.3,29.99,SSE,149,0.0,0.0,58,0.00,SCT,,0.00,WeatherDisplay:10.37,2013-06-14 09:08:00,
2013-06-14 02:10:00,61.2,46.3,29.99,SSE,149,0.0,0.0,58,0.00,SCT,,0.00,WeatherDisplay:10.37,2013-06-14 09:10:00,
2013-06-14 02:11:00,61.2,46.3,29.99,SSE,149,0.0,0.0,58,0.00,SCT,,0.00,WeatherDisplay:10.37,2013-06-14 09:11:00,
2013-06-14 02:13:00,61.3,46.4,29.99,SSE,149,0.0,0.0,58,0.00,SCT,,0.00,WeatherDisplay:10.37,2013-06-14 09:13:00,
2013-06-14 02:14:00,61.2,46.3,30.00,SSE,149,0.0,0.0,58,0.00,SCT,,0.00,WeatherDisplay:10.37,2013-06-14 09:14:00,
2013-06-14 02:15:00,61.1,46.7,29.99,SSE,149,0.0,0.0,59,0.00,SCT,,0.00,WeatherDisplay:10.37,2013-06-14 09:15:00,
2013-06-14 02:17:00,61.0,46.6,29.99,SSE,149,0.0,0.0,59,0.00,SCT,,0.00,WeatherDisplay:10.37,2013-06-14 09:17:00,
2013-06-14 02:18:00,61.0,46.6,30.00,SSE,149,0.0,0.0,59,0.00,SCT,,0.00,WeatherDisplay:10.37,2013-06-14 09:18:00,
2013-06-14 02:19:00,61.0,46.6,30.00,SSE,149,0.0,0.0,59,0.00,SCT,,0.00,WeatherDisplay:10.37,2013-06-14 09:19:00,
2013-06-14 02:20:00,61.0,46.1,29.99,SSE,149,0.0,0.0,58,0.00,SCT,,0.00,WeatherDisplay:10.37,2013-06-14 09:20:00,
2013-06-14 02:21:00,60.9,46.5,29.99,SSE,149,0.0,0.0,59,0.00,SCT,,0.00,WeatherDisplay:10.37,2013-06-14 09:21:00,
2013-06-14 02:22:00,60.8,46.4,29.99,SSE,149,0.0,0.0,59,0.00,SCT,,0.00,WeatherDisplay:10.37,2013-06-14 09:22:00,
2013-06-14 02:23:00,60.8,46.4,29.99,SSE,149,0.0,0.0,59,0.00,SCT,,0.00,WeatherDisplay:10.37,2013-06-14 09:23:00,
2013-06-14 02:24:00,60.7,46.3,29.99,SSE,149,0.0,0.0,59,0.00,SCT,,0.00,WeatherDisplay:10.37,2013-06-14 09:24:00,
2013-06-14 02:25:00,60.7,46.3,29.99,SSE,149,0.0,0.0,59,0.00,SCT,,0.00,WeatherDisplay:10.37,2013-06-14 09:25:00,
2013-06-14 02:27:00,60.6,46.2,29.99,SSE,149,0.0,0.0,59,0.00,SCT,,0.00,WeatherDisplay:10.37,2013-06-14 09:27:00,
2013-06-14 02:28:00,60.6,46.2,29.99,SSE,149,0.0,0.0,59,0.00,SCT,,0.00,WeatherDisplay:10.37,2013-06-14 09:28:00,
2013-06-14 02:29:00,60.5,46.1,29.99,SSE,149,0.0,0.0,59,0.00,SCT,,0.00,WeatherDisplay:10.37,2013-06-14 09:29:00,
2013-06-14 02:31:00,60.5,46.1,29.99,SSE,149,0.0,0.0,59,0.00,SCT,,0.00,WeatherDisplay:10.37,2013-06-14 09:31:00,
2013-06-14 02:33:00,60.5,46.1,29.99,SSE,149,0.0,0.0,59,0.00,SCT,,0.00,WeatherDisplay:10.37,2013-06-14 09:33:00,
2013-06-14 02:36:00,60.6,46.2,29.99,SSE,149,0.0,0.0,59,0.00,SCT,,0.00,WeatherDisplay:10.37,2013-06-14 09:36:00,
2013-06-14 02:37:00,60.6,46.2,29.99,SSE,149,0.0,0.0,59,0.00,SCT,,0.00,WeatherDisplay:10.37,2013-06-14 09:37:00,
2013-06-14 02:38:00,60.6,46.2,30.00,SSE,149,0.0,0.0,59,0.00,SCT,,0.00,WeatherDisplay:10.37,2013-06-14 09:38:00,
2013-06-14 02:39:00,60.6,46.2,30.00,SSE,149,0.0,0.0,59,0.00,SCT,,0.00,WeatherDisplay:10.37,2013-06-14 09:39:00,
2013-06-14 02:41:00,60.5,46.5,30.00,SSE,149,0.0,0.0,60,0.00,SCT,,0.00,WeatherDisplay:10.37,2013-06-14 09:41:00,
2013-06-14 02:42:00,60.5,46.5,30.00,SSE,149,1.0,1.0,60,0.00,SCT,,0.00,WeatherDisplay:10.37,2013-06-14 09:42:00,
2013-06-14 02:43:00,60.4,46.4,30.00,SSE,149,1.2,1.2,60,0.00,SCT,,0.00,WeatherDisplay:10.37,2013-06-14 09:43:00,
2013-06-14 02:44:00,60.4,46.4,30.00,SSE,149,1.2,0.0,60,0.00,SCT,,0.00,WeatherDisplay:10.37,2013-06-14 09:44:00,
2013-06-14 02:45:00,60.4,46.4,30.00,SSE,149,1.2,1.2,60,0.00,SCT,,0.00,WeatherDisplay:10.37,2013-06-14 09:45:00,
2013-06-14 02:47:00,60.4,46.4,30.00,SSE,149,1.0,0.0,60,0.00,SCT,,0.00,WeatherDisplay:10.37,2013-06-14 09:47:00,
2013-06-14 02:48:00,60.3,46.4,29.99,SSE,149,2.3,2.3,60,0.00,SCT,,0.00,WeatherDisplay:10.37,2013-06-14 09:48:00,
2013-06-14 02:49:00,60.3,46.4,29.99,SSE,149,1.2,0.0,60,0.00,SCT,,0.00,WeatherDisplay:10.37,2013-06-14 09:49:00,
2013-06-14 02:50:00,60.2,46.7,29.99,SSE,149,0.0,0.0,61,0.00,SCT,,0.00,WeatherDisplay:10.37,2013-06-14 09:50:00,
2013-06-14 02:52:00,60.2,46.7,29.99,SSE,149,0.0,0.0,61,0.00,SCT,,0.00,WeatherDisplay:10.37,2013-06-14 09:52:00,
2013-06-14 02:53:00,60.1,46.6,29.99,SSE,149,0.0,0.0,61,0.00,SCT,,0.00,WeatherDisplay:10.37,2013-06-14 09:53:00,
2013-06-14 02:55:00,60.1,46.2,29.99,SSE,149,0.0,0.0,60,0.00,SCT,,0.00,WeatherDisplay:10.37,2013-06-14 09:55:00,
2013-06-14 02:59:00,60.1,46.2,29.98,SSE,149,0.0,0.0,60,0.00,SCT,,0.00,WeatherDisplay:10.37,2013-06-14 09:59:00,
2013-06-14 03:00:00,60.2,46.7,29.99,SSE,149,0.0,0.0,61,0.00,SCT,,0.00,WeatherDisplay:10.37,2013-06-14 10:00:00,
2013-06-14 03:01:00,60.2,46.7,29.99,SSE,149,0.0,0.0,61,0.00,SCT,,0.00,WeatherDisplay:10.37,2013-06-14 10:01:00,
2013-06-14 03:05:00,60.1,46.6,29.99,SSE,149,0.0,0.0,61,0.00,SCT,,0.00,WeatherDisplay:10.37,2013-06-14 10:05:00,
2013-06-14 03:06:00,60.1,46.2,29.98,SSE,149,0.0,0.0,60,0.00,SCT,,0.00,WeatherDisplay:10.37,2013-06-14 10:06:00,
2013-06-14 03:07:00,60.1,46.2,29.98,SSE,149,0.0,0.0,60,0.00,SCT,,0.00,WeatherDisplay:10.37,2013-06-14 10:07:00,
2013-06-14 03:10:00,60.0,46.5,29.98,SSE,149,0.0,0.0,61,0.00,SCT,,0.00,WeatherDisplay:10.37,2013-06-14 10:10:00,
2013-06-14 03:11:00,60.0,46.5,29.99,SSE,149,0.0,0.0,61,0.00,SCT,,0.00,WeatherDisplay:10.37,2013-06-14 10:11:00,
2013-06-14 03:12:00,60.0,46.5,29.99,SSE,149,0.0,0.0,61,0.00,SCT,,0.00,WeatherDisplay:10.37,2013-06-14 10:12:00,
2013-06-14 03:15:00,59.9,46.4,29.98,SSE,149,0.0,0.0,61,0.00,SCT,,0.00,WeatherDisplay:10.37,2013-06-14 10:15:00,
2013-06-14 03:16:00,59.8,46.3,29.98,SSE,149,0.0,0.0,61,0.00,SCT,,0.00,WeatherDisplay:10.37,2013-06-14 10:16:00,
2013-06-14 03:17:00,59.8,46.3,29.98,SSE,149,0.0,0.0,61,0.00,SCT,,0.00,WeatherDisplay:10.37,2013-06-14 10:17:00,
2013-06-14 03:18:00,59.7,46.2,29.98,SSE,149,0.0,0.0,61,0.00,SCT,,0.00,WeatherDisplay:10.37,2013-06-14 10:18:00,
2013-06-14 03:20:00,59.7,46.2,29.98,SSE,149,0.0,0.0,61,0.00,SCT,,0.00,WeatherDisplay:10.37,2013-06-14 10:20:00,
2013-06-14 03:21:00,59.7,46.2,29.98,SSE,149,0.0,0.0,61,0.00,SCT,,0.00,WeatherDisplay:10.37,2013-06-14 10:21:00,
2013-06-14 03:22:00,59.7,46.2,29.98,SSE,149,0.0,0.0,61,0.00,SCT,,0.00,WeatherDisplay:10.37,2013-06-14 10:22:00,
2013-06-14 03:23:00,59.7,46.2,29.98,SSE,149,0.0,0.0,61,0.00,SCT,,0.00,WeatherDisplay:10.37,2013-06-14 10:23:00,
2013-06-14 03:26:00,59.7,46.2,29.98,SSE,149,0.0,0.0,61,0.00,SCT,,0.00,WeatherDisplay:10.37,2013-06-14 10:26:00,
2013-06-14 03:27:00,59.6,46.1,29.98,SSE,149,0.0,0.0,61,0.00,SCT,,0.00,WeatherDisplay:10.37,2013-06-14 10:27:00,
2013-06-14 03:29:00,59.5,46.0,29.98,SSE,149,0.0,0.0,61,0.00,SCT,,0.00,WeatherDisplay:10.37,2013-06-14 10:29:00,
2013-06-14 03:30:00,59.5,46.0,29.97,SSE,149,0.0,0.0,61,0.00,SCT,,0.00,WeatherDisplay:10.37,2013-06-14 10:30:00,
2013-06-14 03:31:00,59.5,46.0,29.98,SSE,149,0.0,0.0,61,0.00,SCT,,0.00,WeatherDisplay:10.37,2013-06-14 10:31:00,
2013-06-14 03:33:00,59.5,46.0,29.98,SSE,149,0.0,0.0,61,0.00,SCT,,0.00,WeatherDisplay:10.37,2013-06-14 10:33:00,
2013-06-14 03:34:00,59.5,46.0,29.98,SSE,149,0.0,0.0,61,0.00,SCT,,0.00,WeatherDisplay:10.37,2013-06-14 10:34:00,
2013-06-14 03:36:00,59.4,45.9,29.98,SSE,149,0.0,0.0,61,0.00,SCT,,0.00,WeatherDisplay:10.37,2013-06-14 10:36:00,
2013-06-14 03:38:00,59.3,46.3,29.98,SSE,149,0.0,0.0,62,0.00,SCT,,0.00,WeatherDisplay:10.37,2013-06-14 10:38:00,
2013-06-14 03:39:00,59.3,46.3,29.98,SSE,149,0.0,0.0,62,0.00,SCT,,0.00,WeatherDisplay:10.37,2013-06-14 10:39:00,
2013-06-14 03:40:00,59.3,46.3,29.98,SSE,149,0.0,0.0,62,0.00,SCT,,0.00,WeatherDisplay:10.37,2013-06-14 10:40:00,
2013-06-14 03:42:00,59.2,46.2,29.97,SSE,149,0.0,0.0,62,0.00,SCT,,0.00,WeatherDisplay:10.37,2013-06-14 10:42:00,
2013-06-14 03:44:00,59.2,46.2,29.98,SSE,149,0.0,0.0,62,0.00,SCT,,0.00,WeatherDisplay:10.37,2013-06-14 10:44:00,
2013-06-14 03:45:00,59.1,46.1,29.97,SSE,149,0.0,0.0,62,0.00,SCT,,0.00,WeatherDisplay:10.37,2013-06-14 10:45:00,
2013-06-14 03:47:00,59.1,46.1,29.97,SSE,149,0.0,0.0,62,0.00,SCT,,0.00,WeatherDisplay:10.37,2013-06-14 10:47:00,
2013-06-14 03:49:00,59.0,46.0,29.98,SSE,149,0.0,0.0,62,0.00,SCT,,0.00,WeatherDisplay:10.37,2013-06-14 10:49:00,
2013-06-14 03:50:00,59.0,46.0,29.98,SSE,149,0.0,0.0,62,0.00,SCT,,0.00,WeatherDisplay:10.37,2013-06-14 10:50:00,
2013-06-14 03:52:00,58.9,45.9,29.97,SSE,149,0.0,0.0,62,0.00,SCT,,0.00,WeatherDisplay:10.37,2013-06-14 10:52:00,
2013-06-14 03:53:00,58.9,45.9,29.98,SSE,149,0.0,0.0,62,0.00,SCT,,0.00,WeatherDisplay:10.37,2013-06-14 10:53:00,
2013-06-14 03:54:00,58.8,45.8,29.98,SSE,149,0.0,0.0,62,0.00,SCT,,0.00,WeatherDisplay:10.37,2013-06-14 10:54:00,
2013-06-14 03:55:00,58.7,45.7,29.98,SSE,149,0.0,0.0,62,0.00,SCT,,0.00,WeatherDisplay:10.37,2013-06-14 10:55:00,
2013-06-14 03:56:00,58.7,45.7,29.98,SSE,149,0.0,0.0,62,0.00,SCT,,0.00,WeatherDisplay:10.37,2013-06-14 10:56:00,
2013-06-14 03:57:00,58.6,45.6,29.98,SSE,149,0.0,0.0,62,0.00,SCT,,0.00,WeatherDisplay:10.37,2013-06-14 10:57:00,
2013-06-14 03:59:00,58.6,45.6,29.97,SSE,149,0.0,0.0,62,0.00,SCT,,0.00,WeatherDisplay:10.37,2013-06-14 10:59:00,
2013-06-14 04:01:00,58.5,45.5,29.97,SSE,149,0.0,0.0,62,0.00,SCT,,0.00,WeatherDisplay:10.37,2013-06-14 11:01:00,
2013-06-14 04:02:00,58.4,45.4,29.98,SSE,149,0.0,0.0,62,0.00,SCT,,0.00,WeatherDisplay:10.37,2013-06-14 11:02:00,
2013-06-14 04:05:00,58.3,45.3,29.97,SSE,149,0.0,0.0,62,0.00,SCT,,0.00,WeatherDisplay:10.37,2013-06-14 11:05:00,
2013-06-14 04:06:00,58.4,45.4,29.97,SSE,149,0.0,0.0,62,0.00,SCT,,0.00,WeatherDisplay:10.37,2013-06-14 11:06:00,
2013-06-14 04:07:00,58.4,45.4,29.97,SSE,149,0.0,0.0,62,0.00,SCT,,0.00,WeatherDisplay:10.37,2013-06-14 11:07:00,
2013-06-14 04:10:00,58.2,45.2,29.97,SSE,149,0.0,0.0,62,0.00,SCT,,0.00,WeatherDisplay:10.37,2013-06-14 11:10:00,
2013-06-14 04:11:00,58.2,45.2,29.97,SSE,149,0.0,0.0,62,0.00,SCT,,0.00,WeatherDisplay:10.37,2013-06-14 11:11:00,
2013-06-14 04:12:00,58.2,45.2,29.97,SSE,149,0.0,0.0,62,0.00,SCT,,0.00,WeatherDisplay:10.37,2013-06-14 11:12:00,
2013-06-14 04:16:00,58.1,45.1,29.97,SSE,149,0.0,0.0,62,0.00,SCT,,0.00,WeatherDisplay:10.37,2013-06-14 11:16:00,
2013-06-14 04:17:00,58.0,45.0,29.97,SSE,149,0.0,0.0,62,0.00,SCT,,0.00,WeatherDisplay:10.37,2013-06-14 11:17:00,
2013-06-14 04:20:00,58.0,45.0,29.97,SSE,149,0.0,0.0,62,0.00,SCT,,0.00,WeatherDisplay:10.37,2013-06-14 11:20:00,
2013-06-14 04:22:00,58.0,45.0,29.97,SSE,149,0.0,0.0,62,0.00,SCT,,0.00,WeatherDisplay:10.37,2013-06-14 11:22:00,
2013-06-14 04:23:00,58.0,45.0,29.97,SSE,149,0.0,0.0,62,0.00,SCT,,0.00,WeatherDisplay:10.37,2013-06-14 11:23:00,
2013-06-14 04:25:00,57.8,44.9,29.97,SSE,149,0.0,0.0,62,0.00,SCT,,0.00,WeatherDisplay:10.37,2013-06-14 11:25:00,
2013-06-14 04:27:00,57.7,44.8,29.97,SSE,149,0.0,0.0,62,0.00,SCT,,0.00,WeatherDisplay:10.37,2013-06-14 11:27:00,
2013-06-14 04:28:00,57.7,44.8,29.97,SSE,149,0.0,0.0,62,0.00,SCT,,0.00,WeatherDisplay:10.37,2013-06-14 11:28:00,
2013-06-14 04:29:00,57.7,44.8,29.97,SSE,149,0.0,0.0,62,0.00,SCT,,0.00,WeatherDisplay:10.37,2013-06-14 11:29:00,
2013-06-14 04:31:00,57.6,44.7,29.97,SSE,149,0.0,0.0,62,0.00,SCT,,0.00,WeatherDisplay:10.37,2013-06-14 11:31:00,
2013-06-14 04:33:00,57.5,45.0,29.97,SSE,149,0.0,0.0,63,0.00,SCT,,0.00,WeatherDisplay:10.37,2013-06-14 11:33:00,
2013-06-14 04:34:00,57.5,45.0,29.97,SSE,149,0.0,0.0,63,0.00,SCT,,0.00,WeatherDisplay:10.37,2013-06-14 11:34:00,
2013-06-14 04:35:00,57.5,45.0,29.97,SSE,149,0.0,0.0,63,0.00,SCT,,0.00,WeatherDisplay:10.37,2013-06-14 11:35:00,
2013-06-14 04:36:00,57.5,45.0,29.97,SSE,149,0.0,0.0,63,0.00,SCT,,0.00,WeatherDisplay:10.37,2013-06-14 11:36:00,
2013-06-14 04:38:00,57.4,44.9,29.97,SSE,149,0.0,0.0,63,0.00,SCT,,0.00,WeatherDisplay:10.37,2013-06-14 11:38:00,
2013-06-14 04:39:00,57.4,44.9,29.97,SSE,149,0.0,0.0,63,0.00,SCT,,0.00,WeatherDisplay:10.37,2013-06-14 11:39:00,
2013-06-14 04:40:00,57.4,44.9,29.97,SSE,149,0.0,0.0,63,0.00,SCT,,0.00,WeatherDisplay:10.37,2013-06-14 11:40:00,
2013-06-14 04:41:00,57.3,44.8,29.97,SSE,149,0.0,0.0,63,0.00,SCT,,0.00,WeatherDisplay:10.37,2013-06-14 11:41:00,
2013-06-14 04:42:00,57.3,44.8,29.97,SSE,149,0.0,0.0,63,0.00,SCT,,0.00,WeatherDisplay:10.37,2013-06-14 11:42:00,
2013-06-14 04:44:00,57.3,44.4,29.97,SSE,149,0.0,0.0,62,0.00,SCT,,0.00,WeatherDisplay:10.37,2013-06-14 11:44:00,
2013-06-14 04:45:00,57.2,44.7,29.97,SSE,149,0.0,0.0,63,0.00,SCT,,0.00,WeatherDisplay:10.37,2013-06-14 11:45:00,
2013-06-14 04:47:00,57.1,44.6,29.97,SSE,149,0.0,0.0,63,0.00,SCT,,0.00,WeatherDisplay:10.37,2013-06-14 11:47:00,
2013-06-14 04:48:00,57.1,44.6,29.97,SSE,149,0.0,0.0,63,0.00,SCT,,0.00,WeatherDisplay:10.37,2013-06-14 11:48:00,
2013-06-14 04:49:00,57.1,44.6,29.97,SSE,149,0.0,0.0,63,0.00,SCT,,0.00,WeatherDisplay:10.37,2013-06-14 11:49:00,
2013-06-14 04:50:00,57.0,44.5,29.97,SSE,149,0.0,0.0,63,0.00,SCT,,0.00,WeatherDisplay:10.37,2013-06-14 11:50:00,
2013-06-14 04:52:00,57.0,44.5,29.97,SSE,149,0.0,0.0,63,0.00,SCT,,0.00,WeatherDisplay:10.37,2013-06-14 11:52:00,
2013-06-14 04:53:00,56.9,44.4,29.97,SSE,149,0.0,0.0,63,0.00,SCT,,0.00,WeatherDisplay:10.37,2013-06-14 11:53:00,
2013-06-14 04:54:00,56.9,44.4,29.97,SSE,149,0.0,0.0,63,0.00,SCT,,0.00,WeatherDisplay:10.37,2013-06-14 11:54:00,
2013-06-14 04:55:00,57.0,44.5,29.97,SSE,149,0.0,0.0,63,0.00,SCT,,0.00,WeatherDisplay:10.37,2013-06-14 11:55:00,
2013-06-14 04:57:00,57.0,44.5,29.97,SSE,149,0.0,0.0,63,0.00,SCT,,0.00,WeatherDisplay:10.37,2013-06-14 11:57:00,
2013-06-14 04:58:00,56.9,44.4,29.97,SSE,149,0.0,0.0,63,0.00,SCT,,0.00,WeatherDisplay:10.37,2013-06-14 11:58:00,
2013-06-14 04:59:00,56.9,44.4,29.97,SSE,149,0.0,0.0,63,0.00,SCT,,0.00,WeatherDisplay:10.37,2013-06-14 11:59:00,
2013-06-14 05:01:00,56.9,44.4,29.97,SSE,149,0.0,0.0,63,0.00,SCT,,0.00,WeatherDisplay:10.37,2013-06-14 12:01:00,
2013-06-14 05:03:00,56.9,44.4,29.97,SSE,149,1.2,1.2,63,0.00,SCT,,0.00,WeatherDisplay:10.37,2013-06-14 12:03:00,
2013-06-14 05:04:00,56.8,44.3,29.97,SSE,149,1.2,0.0,63,0.00,SCT,,0.00,WeatherDisplay:10.37,2013-06-14 12:04:00,
2013-06-14 05:05:00,56.8,44.3,29.97,SSE,149,0.0,0.0,63,0.00,SCT,,0.00,WeatherDisplay:10.37,2013-06-14 12:05:00,
2013-06-14 05:06:00,56.8,44.3,29.97,SSE,149,0.0,0.0,63,0.00,SCT,,0.00,WeatherDisplay:10.37,2013-06-14 12:06:00,
2013-06-14 05:09:00,56.9,44.4,29.97,SSE,149,0.0,0.0,63,0.00,SCT,,0.00,WeatherDisplay:10.37,2013-06-14 12:09:00,
2013-06-14 05:10:00,56.9,44.4,29.97,SSE,149,0.0,0.0,63,0.00,SCT,,0.00,WeatherDisplay:10.37,2013-06-14 12:10:00,
2013-06-14 05:13:00,56.8,44.3,29.97,SSE,149,0.0,0.0,63,0.00,SCT,,0.00,WeatherDisplay:10.37,2013-06-14 12:13:00,
2013-06-14 05:14:00,56.8,44.3,29.97,SSE,149,0.0,0.0,63,0.00,SCT,,0.00,WeatherDisplay:10.37,2013-06-14 12:14:00,
2013-06-14 05:16:00,56.8,44.3,29.97,SSE,149,0.0,0.0,63,0.00,SCT,,0.00,WeatherDisplay:10.37,2013-06-14 12:16:00,
2013-06-14 05:18:00,56.8,44.3,29.97,SSE,149,0.0,0.0,63,0.00,SCT,,0.00,WeatherDisplay:10.37,2013-06-14 12:18:00,
2013-06-14 05:19:00,56.7,44.2,29.97,SSE,149,0.0,0.0,63,0.00,SCT,,0.00,WeatherDisplay:10.37,2013-06-14 12:19:00,
2013-06-14 05:20:00,56.7,44.2,29.97,SSE,149,0.0,0.0,63,0.00,SCT,,0.00,WeatherDisplay:10.37,2013-06-14 12:20:00,
2013-06-14 05:21:00,56.7,44.2,29.97,SSE,149,0.0,0.0,63,0.00,SCT,,0.00,WeatherDisplay:10.37,2013-06-14 12:21:00,
2013-06-14 05:23:00,56.7,44.2,29.97,SSE,149,0.0,0.0,63,0.00,SCT,,0.00,WeatherDisplay:10.37,2013-06-14 12:23:00,
2013-06-14 05:25:00,56.6,44.1,29.97,SSE,149,0.0,0.0,63,0.00,SCT,,0.00,WeatherDisplay:10.37,2013-06-14 12:25:00,
2013-06-14 05:26:00,56.6,44.1,29.97,SSE,149,0.0,0.0,63,0.00,SCT,,0.00,WeatherDisplay:10.37,2013-06-14 12:26:00,
2013-06-14 05:27:00,56.5,44.0,29.97,SSE,149,0.0,0.0,63,0.00,SCT,,0.00,WeatherDisplay:10.37,2013-06-14 12:27:00,
2013-06-14 05:28:00,56.5,44.0,29.97,SSE,149,0.0,0.0,63,0.00,SCT,,0.00,WeatherDisplay:10.37,2013-06-14 12:28:00,
2013-06-14 05:30:00,56.4,44.0,29.97,SSE,149,0.0,0.0,63,0.00,SCT,,0.00,WeatherDisplay:10.37,2013-06-14 12:30:00,
2013-06-14 05:31:00,56.4,44.4,29.97,SSE,149,0.0,0.0,64,0.00,SCT,,0.00,WeatherDisplay:10.37,2013-06-14 12:31:00,
2013-06-14 05:32:00,56.4,44.4,29.97,SSE,149,0.0,0.0,64,0.00,SCT,,0.00,WeatherDisplay:10.37,2013-06-14 12:32:00,
2013-06-14 05:34:00,56.3,43.9,29.97,SSE,149,0.0,0.0,63,0.00,SCT,,0.00,WeatherDisplay:10.37,2013-06-14 12:34:00,
2013-06-14 05:35:00,56.3,43.9,29.97,SSE,149,0.0,0.0,63,0.00,SCT,,0.00,WeatherDisplay:10.37,2013-06-14 12:35:00,
2013-06-14 05:36:00,56.2,44.2,29.97,SSE,149,0.0,0.0,64,0.00,SCT,,0.00,WeatherDisplay:10.37,2013-06-14 12:36:00,
2013-06-14 05:39:00,56.2,44.2,29.97,SSE,149,0.0,0.0,64,0.00,SCT,,0.00,WeatherDisplay:10.37,2013-06-14 12:39:00,
2013-06-14 05:40:00,56.2,44.2,29.97,SSE,149,0.0,0.0,64,0.00,SCT,,0.00,WeatherDisplay:10.37,2013-06-14 12:40:00,
2013-06-14 05:41:00,56.2,44.2,29.97,SSE,149,0.0,0.0,64,0.00,SCT,,0.00,WeatherDisplay:10.37,2013-06-14 12:41:00,
2013-06-14 05:43:00,56.1,44.1,29.97,SSE,149,0.0,0.0,64,0.00,SCT,,0.00,WeatherDisplay:10.37,2013-06-14 12:43:00,
2013-06-14 05:45:00,56.1,44.1,29.97,SSE,149,0.0,0.0,64,0.00,SCT,,0.00,WeatherDisplay:10.37,2013-06-14 12:45:00,
2013-06-14 05:46:00,56.1,44.1,29.97,SSE,149,0.0,0.0,64,0.00,SCT,,0.00,WeatherDisplay:10.37,2013-06-14 12:46:00,
2013-06-14 05:48:00,56.1,44.1,29.97,SSE,149,0.0,0.0,64,0.00,SCT,,0.00,WeatherDisplay:10.37,2013-06-14 12:48:00,
2013-06-14 05:50:00,56.0,44.0,29.97,SSE,149,0.0,0.0,64,0.00,SCT,,0.00,WeatherDisplay:10.37,2013-06-14 12:50:00,
2013-06-14 05:53:00,56.0,44.0,29.97,SSE,149,0.0,0.0,64,0.00,SCT,,0.00,WeatherDisplay:10.37,2013-06-14 12:53:00,
2013-06-14 05:55:00,56.0,44.0,29.97,SSE,149,0.0,0.0,64,0.00,SCT,,0.00,WeatherDisplay:10.37,2013-06-14 12:55:00,
2013-06-14 05:56:00,56.0,44.0,29.97,SSE,149,0.0,0.0,64,0.00,SCT,,0.00,WeatherDisplay:10.37,2013-06-14 12:56:00,
2013-06-14 05:58:00,55.9,43.9,29.97,SSE,149,0.0,0.0,64,0.00,SCT,,0.00,WeatherDisplay:10.37,2013-06-14 12:58:00,
2013-06-14 05:59:00,55.9,43.9,29.97,SSE,149,0.0,0.0,64,0.00,SCT,,0.00,WeatherDisplay:10.37,2013-06-14 12:59:00,
2013-06-14 06:01:00,55.9,44.3,29.97,SSE,149,0.0,0.0,65,0.00,SCT,,0.00,WeatherDisplay:10.37,2013-06-14 13:01:00,
2013-06-14 06:03:00,56.0,44.0,29.97,SSE,149,0.0,0.0,64,0.00,SCT,,0.00,WeatherDisplay:10.37,2013-06-14 13:03:00,
2013-06-14 06:04:00,55.9,44.3,29.97,SSE,149,0.0,0.0,65,0.00,SCT,,0.00,WeatherDisplay:10.37,2013-06-14 13:04:00,
2013-06-14 06:06:00,55.9,44.3,29.97,SSE,149,0.0,0.0,65,0.00,SCT,,0.00,WeatherDisplay:10.37,2013-06-14 13:06:00,
2013-06-14 06:07:00,55.9,44.3,29.97,SSE,149,0.0,0.0,65,0.00,SCT,,0.00,WeatherDisplay:10.37,2013-06-14 13:07:00,
2013-06-14 06:09:00,55.9,44.3,29.97,SSE,149,0.0,0.0,65,0.00,SCT,,0.00,WeatherDisplay:10.37,2013-06-14 13:09:00,
2013-06-14 06:10:00,55.9,44.3,29.97,SSE,149,0.0,0.0,65,0.00,SCT,,0.00,WeatherDisplay:10.37,2013-06-14 13:10:00,
2013-06-14 06:12:00,55.9,44.3,29.97,SSE,149,0.0,0.0,65,0.00,SCT,,0.00,WeatherDisplay:10.37,2013-06-14 13:12:00,
2013-06-14 06:13:00,56.0,44.4,29.97,SSE,149,0.0,0.0,65,0.00,SCT,,0.00,WeatherDisplay:10.37,2013-06-14 13:13:00,
2013-06-14 06:15:00,56.2,44.6,29.97,SSE,149,0.0,0.0,65,0.00,SCT,,0.00,WeatherDisplay:10.37,2013-06-14 13:15:00,
2013-06-14 06:17:00,56.5,45.3,29.97,SSE,149,0.0,0.0,66,0.00,SCT,,0.00,WeatherDisplay:10.37,2013-06-14 13:17:00,
2013-06-14 06:18:00,56.5,45.7,29.97,SSE,149,0.0,0.0,67,0.00,SCT,,0.00,WeatherDisplay:10.37,2013-06-14 13:18:00,
2013-06-14 06:19:00,56.7,45.9,29.97,SSE,149,0.0,0.0,67,0.00,SCT,,0.00,WeatherDisplay:10.37,2013-06-14 13:19:00,
2013-06-14 06:20:00,56.7,45.8,29.97,SSE,149,0.0,0.0,67,0.00,SCT,,0.00,WeatherDisplay:10.37,2013-06-14 13:20:00,
2013-06-14 06:21:00,56.8,46.0,29.97,SSE,149,0.0,0.0,67,0.00,SCT,,0.00,WeatherDisplay:10.37,2013-06-14 13:21:00,
2013-06-14 06:23:00,57.1,46.6,29.97,SSE,149,0.0,0.0,68,0.00,SCT,,0.00,WeatherDisplay:10.37,2013-06-14 13:23:00,
2013-06-14 06:24:00,57.2,46.3,29.97,SSE,149,0.0,0.0,67,0.00,SCT,,0.00,WeatherDisplay:10.37,2013-06-14 13:24:00,
2013-06-14 06:25:00,57.4,46.5,29.97,SSE,149,0.0,0.0,67,0.00,SCT,,0.00,WeatherDisplay:10.37,2013-06-14 13:25:00,
2013-06-14 06:27:00,57.7,46.8,29.97,SSE,149,0.0,0.0,67,0.00,SCT,,0.00,WeatherDisplay:10.37,2013-06-14 13:27:00,
2013-06-14 06:29:00,58.0,46.7,29.97,SSE,149,0.0,0.0,66,0.00,SCT,,0.00,WeatherDisplay:10.37,2013-06-14 13:29:00,
2013-06-14 06:30:00,58.2,47.3,29.97,SSE,149,0.0,0.0,67,0.00,SCT,,0.00,WeatherDisplay:10.37,2013-06-14 13:30:00,
2013-06-14 06:31:00,58.3,47.8,29.97,SSE,149,0.0,0.0,68,0.00,SCT,,0.00,WeatherDisplay:10.37,2013-06-14 13:31:00,
2013-06-14 06:34:00,58.8,47.9,29.97,SSE,149,0.0,0.0,67,0.00,SCT,,0.00,WeatherDisplay:10.37,2013-06-14 13:34:00,
2013-06-14 06:35:00,59.0,46.8,29.97,SSE,149,0.0,0.0,64,0.00,SCT,,0.00,WeatherDisplay:10.37,2013-06-14 13:35:00,
2013-06-14 06:36:00,59.1,46.9,29.97,SSE,149,0.0,0.0,64,0.00,SCT,,0.00,WeatherDisplay:10.37,2013-06-14 13:36:00,
2013-06-14 06:37:00,59.3,46.7,29.97,SSE,149,0.0,0.0,63,0.00,SCT,,0.00,WeatherDisplay:10.37,2013-06-14 13:37:00,
2013-06-14 06:39:00,59.5,46.5,29.97,SSE,149,0.0,0.0,62,0.00,SCT,,0.00,WeatherDisplay:10.37,2013-06-14 13:39:00,
2013-06-14 06:40:00,59.6,46.6,29.97,SSE,149,0.0,0.0,62,0.00,SCT,,0.00,WeatherDisplay:10.37,2013-06-14 13:40:00,
2013-06-14 06:42:00,59.9,46.8,29.97,SSE,149,0.0,0.0,62,0.00,SCT,,0.00,WeatherDisplay:10.37,2013-06-14 13:42:00,
2013-06-14 06:43:00,60.0,46.5,29.97,SSE,149,0.0,0.0,61,0.00,SCT,,0.00,WeatherDisplay:10.37,2013-06-14 13:43:00,
2013-06-14 06:45:00,60.2,47.1,29.97,SSE,149,0.0,0.0,62,0.00,SCT,,0.00,WeatherDisplay:10.37,2013-06-14 13:45:00,
2013-06-14 06:47:00,60.6,47.1,29.97,SSE,149,0.0,0.0,61,0.00,SCT,,0.00,WeatherDisplay:10.37,2013-06-14 13:47:00,
2013-06-14 06:49:00,60.8,47.3,29.97,SSE,149,0.0,0.0,61,0.00,SCT,,0.00,WeatherDisplay:10.37,2013-06-14 13:49:00,
2013-06-14 06:50:00,61.0,46.6,29.97,SSE,149,0.0,0.0,59,0.00,SCT,,0.00,WeatherDisplay:10.37,2013-06-14 13:50:00,
2013-06-14 06:51:00,61.1,47.5,29.97,SSE,149,0.0,0.0,61,0.00,SCT,,0.00,WeatherDisplay:10.37,2013-06-14 13:51:00,
2013-06-14 06:53:00,61.4,47.8,29.97,SSE,149,0.0,0.0,61,0.00,SCT,,0.00,WeatherDisplay:10.37,2013-06-14 13:53:00,
2013-06-14 06:54:00,61.5,47.0,29.97,SSE,149,0.0,0.0,59,0.00,SCT,,0.00,WeatherDisplay:10.37,2013-06-14 13:54:00,
2013-06-14 06:55:00,61.6,47.2,29.97,SSE,149,0.0,0.0,59,0.00,SCT,,0.00,WeatherDisplay:10.37,2013-06-14 13:55:00,
2013-06-14 06:56:00,61.8,47.3,29.97,SSE,149,0.0,0.0,59,0.00,SCT,,0.00,WeatherDisplay:10.37,2013-06-14 13:56:00,
2013-06-14 06:58:00,62.1,47.6,29.97,SSE,149,0.0,0.0,59,0.00,SCT,,0.00,WeatherDisplay:10.37,2013-06-14 13:58:00,
2013-06-14 07:00:00,62.4,47.9,29.97,SSE,149,0.0,0.0,59,0.00,SCT,,0.00,WeatherDisplay:10.37,2013-06-14 14:00:00,
2013-06-14 07:01:00,62.6,48.5,29.97,SSE,149,0.0,0.0,60,0.00,SCT,,0.00,WeatherDisplay:10.37,2013-06-14 14:01:00,
2013-06-14 07:03:00,63.0,48.0,29.97,SSE,149,0.0,0.0,58,0.00,SCT,,0.00,WeatherDisplay:10.37,2013-06-14 14:03:00,
2013-06-14 07:04:00,63.3,47.8,29.97,SSE,149,0.0,0.0,57,0.00,SCT,,0.00,WeatherDisplay:10.37,2013-06-14 14:04:00,
2013-06-14 07:05:00,63.4,48.8,29.97,SSE,149,0.0,0.0,59,0.00,SCT,,0.00,WeatherDisplay:10.37,2013-06-14 14:05:00,
2013-06-14 07:07:00,63.6,47.6,29.97,SSE,149,0.0,0.0,56,0.00,SCT,,0.00,WeatherDisplay:10.37,2013-06-14 14:07:00,
2013-06-14 07:09:00,64.0,48.0,29.97,SSE,149,0.0,0.0,56,0.00,SCT,,0.00,WeatherDisplay:10.37,2013-06-14 14:09:00,
2013-06-14 07:10:00,64.0,47.5,29.97,SSE,149,0.0,0.0,55,0.00,SCT,,0.00,WeatherDisplay:10.37,2013-06-14 14:10:00,
2013-06-14 07:13:00,64.4,47.4,29.97,SSE,149,0.0,0.0,54,0.00,SCT,,0.00,WeatherDisplay:10.37,2013-06-14 14:13:00,
2013-06-14 07:15:00,64.5,47.5,29.97,SSE,149,0.0,0.0,54,0.00,SCT,,0.00,WeatherDisplay:10.37,2013-06-14 14:15:00,
2013-06-14 07:16:00,64.6,47.1,29.97,SSE,149,0.0,0.0,53,0.00,SCT,,0.00,WeatherDisplay:10.37,2013-06-14 14:16:00,
2013-06-14 07:18:00,64.9,47.4,29.97,SSE,149,0.0,0.0,53,0.00,SCT,,0.00,WeatherDisplay:10.37,2013-06-14 14:18:00,
2013-06-14 07:19:00,64.9,47.4,29.97,SSE,149,0.0,0.0,53,0.00,SCT,,0.00,WeatherDisplay:10.37,2013-06-14 14:19:00,
2013-06-14 07:20:00,65.2,49.1,29.97,SSE,149,0.0,0.0,56,0.00,SCT,,0.00,WeatherDisplay:10.37,2013-06-14 14:20:00,
2013-06-14 07:21:00,65.2,47.6,29.97,SSE,149,0.0,0.0,53,0.00,SCT,,0.00,WeatherDisplay:10.37,2013-06-14 14:21:00,
2013-06-14 07:22:00,65.3,47.2,29.97,SSE,149,0.0,0.0,52,0.00,SCT,,0.00,WeatherDisplay:10.37,2013-06-14 14:22:00,
2013-06-14 07:25:00,65.4,46.8,29.97,SSE,149,0.0,0.0,51,0.00,SCT,,0.00,WeatherDisplay:10.37,2013-06-14 14:25:00,
2013-06-14 07:26:00,65.6,47.0,29.97,SSE,149,0.0,0.0,51,0.00,SCT,,0.00,WeatherDisplay:10.37,2013-06-14 14:26:00,
2013-06-14 07:27:00,65.7,47.6,29.97,SSE,149,0.0,0.0,52,0.00,SCT,,0.00,WeatherDisplay:10.37,2013-06-14 14:27:00,
2013-06-14 07:28:00,65.8,46.6,29.97,SSE,149,0.0,0.0,50,0.00,SCT,,0.00,WeatherDisplay:10.37,2013-06-14 14:28:00,
2013-06-14 07:30:00,66.0,47.9,29.97,SSE,149,0.0,0.0,52,0.00,SCT,,0.00,WeatherDisplay:10.37,2013-06-14 14:30:00,
2013-06-14 07:31:00,66.3,47.1,29.97,SSE,149,0.0,0.0,50,0.00,SCT,,0.00,WeatherDisplay:10.37,2013-06-14 14:31:00,
2013-06-14 07:34:00,66.4,47.2,29.97,SSE,149,0.0,0.0,50,0.00,SCT,,0.00,WeatherDisplay:10.37,2013-06-14 14:34:00,
2013-06-14 07:35:00,66.5,47.3,29.97,SSE,149,0.0,0.0,50,0.00,SCT,,0.00,WeatherDisplay:10.37,2013-06-14 14:35:00,
2013-06-14 07:37:00,66.8,47.0,29.97,SSE,149,0.0,0.0,49,0.00,SCT,,0.00,WeatherDisplay:10.37,2013-06-14 14:37:00,
2013-06-14 07:39:00,67.1,46.7,29.97,SSE,149,0.0,0.0,48,0.00,SCT,,0.00,WeatherDisplay:10.37,2013-06-14 14:39:00,
2013-06-14 07:40:00,67.1,46.7,29.97,SSE,149,0.0,0.0,48,0.00,SCT,,0.00,WeatherDisplay:10.37,2013-06-14 14:40:00,
2013-06-14 07:41:00,67.1,48.4,29.97,SSE,149,0.0,0.0,51,0.00,SCT,,0.00,WeatherDisplay:10.37,2013-06-14 14:41:00,
2013-06-14 07:42:00,67.3,48.0,29.97,SSE,149,0.0,0.0,50,0.00,SCT,,0.00,WeatherDisplay:10.37,2013-06-14 14:42:00,
2013-06-14 07:44:00,67.6,47.2,29.97,SSE,149,0.0,0.0,48,0.00,SCT,,0.00,WeatherDisplay:10.37,2013-06-14 14:44:00,
2013-06-14 07:46:00,67.8,47.4,29.97,SSE,149,0.0,0.0,48,0.00,SCT,,0.00,WeatherDisplay:10.37,2013-06-14 14:46:00,
2013-06-14 07:47:00,67.8,47.4,29.97,SSE,149,0.0,0.0,48,0.00,SCT,,0.00,WeatherDisplay:10.37,2013-06-14 14:47:00,
2013-06-14 07:48:00,68.1,48.2,29.97,SSE,149,0.0,0.0,49,0.00,SCT,,0.00,WeatherDisplay:10.37,2013-06-14 14:48:00,
2013-06-14 07:49:00,68.3,47.3,29.97,SSE,149,0.0,0.0,47,0.00,SCT,,0.00,WeatherDisplay:10.37,2013-06-14 14:49:00,
2013-06-14 07:51:00,68.5,46.9,29.97,SSE,149,0.0,0.0,46,0.00,SCT,,0.00,WeatherDisplay:10.37,2013-06-14 14:51:00,
2013-06-14 07:52:00,68.5,46.9,29.97,SSE,149,0.0,0.0,46,0.00,SCT,,0.00,WeatherDisplay:10.37,2013-06-14 14:52:00,
2013-06-14 07:53:00,68.5,47.5,29.97,SSE,149,0.0,0.0,47,0.00,SCT,,0.00,WeatherDisplay:10.37,2013-06-14 14:53:00,
2013-06-14 07:55:00,68.6,48.7,29.97,SSE,149,0.0,0.0,49,0.00,SCT,,0.00,WeatherDisplay:10.37,2013-06-14 14:55:00,
2013-06-14 07:56:00,68.7,47.6,29.97,SSE,149,0.0,0.0,47,0.00,SCT,,0.00,WeatherDisplay:10.37,2013-06-14 14:56:00,
2013-06-14 07:57:00,68.7,47.1,29.97,SSE,149,0.0,0.0,46,0.00,SCT,,0.00,WeatherDisplay:10.37,2013-06-14 14:57:00,
2013-06-14 07:59:00,69.1,48.0,29.97,SSE,149,0.0,0.0,47,0.00,SCT,,0.00,WeatherDisplay:10.37,2013-06-14 14:59:00,
2013-06-14 08:01:00,69.3,48.2,29.97,SSE,149,0.0,0.0,47,0.00,SCT,,0.00,WeatherDisplay:10.37,2013-06-14 15:01:00,
2013-06-14 08:02:00,69.6,47.9,29.97,SSE,149,0.0,0.0,46,0.00,SCT,,0.00,WeatherDisplay:10.37,2013-06-14 15:02:00,
2013-06-14 08:03:00,69.6,47.3,29.97,SSE,149,0.0,0.0,45,0.00,SCT,,0.00,WeatherDisplay:10.37,2013-06-14 15:03:00,
2013-06-14 08:05:00,69.8,48.1,29.97,SSE,149,0.0,0.0,46,0.00,SCT,,0.00,WeatherDisplay:10.37,2013-06-14 15:05:00,
2013-06-14 08:06:00,70.0,48.3,29.97,SSE,149,0.0,0.0,46,0.00,SCT,,0.00,WeatherDisplay:10.37,2013-06-14 15:06:00,
2013-06-14 08:07:00,70.2,47.3,29.97,SSE,149,0.0,0.0,44,0.00,SCT,,0.00,WeatherDisplay:10.37,2013-06-14 15:07:00,
2013-06-14 08:08:00,70.2,47.9,29.97,SSE,149,0.0,0.0,45,0.00,SCT,,0.00,WeatherDisplay:10.37,2013-06-14 15:08:00,
2013-06-14 08:11:00,70.5,47.5,29.97,SSE,149,0.0,0.0,44,0.00,SCT,,0.00,WeatherDisplay:10.37,2013-06-14 15:11:00,
2013-06-14 08:13:00,70.7,47.1,29.97,SSE,149,0.0,0.0,43,0.00,SCT,,0.00,WeatherDisplay:10.37,2013-06-14 15:13:00,
2013-06-14 08:14:00,71.0,48.0,29.97,SSE,149,0.0,0.0,44,0.00,SCT,,0.00,WeatherDisplay:10.37,2013-06-14 15:14:00,
2013-06-14 08:16:00,71.1,46.2,29.97,SSE,149,0.0,0.0,41,0.00,SCT,,0.00,WeatherDisplay:10.37,2013-06-14 15:16:00,
2013-06-14 08:18:00,71.3,47.0,29.97,SSE,149,0.0,0.0,42,0.00,SCT,,0.00,WeatherDisplay:10.37,2013-06-14 15:18:00,
2013-06-14 08:20:00,71.3,46.4,29.97,SSE,149,0.0,0.0,41,0.00,SCT,,0.00,WeatherDisplay:10.37,2013-06-14 15:20:00,
2013-06-14 08:22:00,71.3,47.0,29.97,SSE,149,0.0,0.0,42,0.00,SCT,,0.00,WeatherDisplay:10.37,2013-06-14 15:22:00,
2013-06-14 08:23:00,71.6,47.9,29.97,SSE,149,0.0,0.0,43,0.00,SCT,,0.00,WeatherDisplay:10.37,2013-06-14 15:23:00,
2013-06-14 08:25:00,72.0,47.6,29.97,SSE,149,0.0,0.0,42,0.00,SCT,,0.00,WeatherDisplay:10.37,2013-06-14 15:25:00,
2013-06-14 08:26:00,72.1,47.7,29.97,SSE,149,0.0,0.0,42,0.00,SCT,,0.00,WeatherDisplay:10.37,2013-06-14 15:26:00,
2013-06-14 08:27:00,72.1,46.4,29.97,SSE,149,0.0,0.0,40,0.00,SCT,,0.00,WeatherDisplay:10.37,2013-06-14 15:27:00,
2013-06-14 08:28:00,72.0,47.6,29.97,SSE,149,0.0,0.0,42,0.00,SCT,,0.00,WeatherDisplay:10.37,2013-06-14 15:28:00,
2013-06-14 08:30:00,72.3,46.6,29.97,SSE,149,0.0,0.0,40,0.00,SCT,,0.00,WeatherDisplay:10.37,2013-06-14 15:30:00,
2013-06-14 08:31:00,72.3,45.9,29.97,SSE,149,0.0,0.0,39,0.00,SCT,,0.00,WeatherDisplay:10.37,2013-06-14 15:31:00,
2013-06-14 08:32:00,72.3,45.9,29.97,SSE,149,0.0,0.0,39,0.00,SCT,,0.00,WeatherDisplay:10.37,2013-06-14 15:32:00,
2013-06-14 08:34:00,72.2,46.5,29.97,SSE,149,0.0,0.0,40,0.00,SCT,,0.00,WeatherDisplay:10.37,2013-06-14 15:34:00,
2013-06-14 08:35:00,72.4,47.4,29.97,SSE,149,0.0,0.0,41,0.00,SCT,,0.00,WeatherDisplay:10.37,2013-06-14 15:35:00,
2013-06-14 08:36:00,72.5,46.8,29.97,SSE,149,0.0,0.0,40,0.00,SCT,,0.00,WeatherDisplay:10.37,2013-06-14 15:36:00,
2013-06-14 08:37:00,72.6,46.9,29.97,SSE,149,0.0,0.0,40,0.00,SCT,,0.00,WeatherDisplay:10.37,2013-06-14 15:37:00,
2013-06-14 08:39:00,72.9,45.1,29.97,SSE,149,0.0,0.0,37,0.00,SCT,,0.00,WeatherDisplay:10.37,2013-06-14 15:39:00,
2013-06-14 08:41:00,73.2,47.4,29.97,SSE,149,0.0,0.0,40,0.00,SCT,,0.00,WeatherDisplay:10.37,2013-06-14 15:41:00,
2013-06-14 08:42:00,73.3,46.2,29.97,SSE,149,0.0,0.0,38,0.00,SCT,,0.00,WeatherDisplay:10.37,2013-06-14 15:42:00,
2013-06-14 08:45:00,73.8,44.4,29.97,SSE,149,0.0,0.0,35,0.00,SCT,,0.00,WeatherDisplay:10.37,2013-06-14 15:45:00,
2013-06-14 08:46:00,73.8,44.4,29.97,SSE,149,0.0,0.0,35,0.00,SCT,,0.00,WeatherDisplay:10.37,2013-06-14 15:46:00,
2013-06-14 08:47:00,73.9,45.3,29.97,SSE,149,0.0,0.0,36,0.00,SCT,,0.00,WeatherDisplay:10.37,2013-06-14 15:47:00,
2013-06-14 08:48:00,74.0,45.3,29.97,SSE,149,0.0,0.0,36,0.00,SCT,,0.00,WeatherDisplay:10.37,2013-06-14 15:48:00,
2013-06-14 08:50:00,74.4,45.7,29.97,SSE,149,0.0,0.0,36,0.00,SCT,,0.00,WeatherDisplay:10.37,2013-06-14 15:50:00,
2013-06-14 08:51:00,74.8,44.5,29.97,SSE,149,0.0,0.0,34,0.00,SCT,,0.00,WeatherDisplay:10.37,2013-06-14 15:51:00,
2013-06-14 08:52:00,74.8,44.5,29.97,SSE,149,0.0,0.0,34,0.00,SCT,,0.00,WeatherDisplay:10.37,2013-06-14 15:52:00,
2013-06-14 08:53:00,75.0,43.9,29.97,SSE,149,0.0,0.0,33,0.00,SCT,,0.00,WeatherDisplay:10.37,2013-06-14 15:53:00,
2013-06-14 08:55:00,75.2,44.1,29.97,SE,142,0.0,0.0,33,0.00,SCT,,0.00,WeatherDisplay:10.37,2013-06-14 15:55:00,
2013-06-14 08:57:00,75.5,45.2,29.97,NW,307,0.0,0.0,34,0.00,SCT,,0.00,WeatherDisplay:10.37,2013-06-14 15:57:00,
2013-06-14 08:58:00,75.7,44.5,29.97,NW,306,0.0,0.0,33,0.00,SCT,,0.00,WeatherDisplay:10.37,2013-06-14 15:58:00,
2013-06-14 09:00:00,75.8,44.6,29.97,NNW,327,0.0,0.0,33,0.00,SCT,,0.00,WeatherDisplay:10.37,2013-06-14 16:00:00,
2013-06-14 09:02:00,75.7,44.5,29.97,NNW,327,0.0,0.0,33,0.00,SCT,,0.00,WeatherDisplay:10.37,2013-06-14 16:02:00,
2013-06-14 09:04:00,75.7,44.5,29.97,West,265,0.0,0.0,33,0.00,SCT,,0.00,WeatherDisplay:10.37,2013-06-14 16:04:00,
2013-06-14 09:05:00,75.8,44.6,29.97,West,265,0.0,0.0,33,0.00,SCT,,0.00,WeatherDisplay:10.37,2013-06-14 16:05:00,
2013-06-14 09:06:00,76.1,44.9,29.97,West,265,0.0,0.0,33,0.00,SCT,,0.00,WeatherDisplay:10.37,2013-06-14 16:06:00,
2013-06-14 09:07:00,76.2,45.0,29.97,West,265,0.0,0.0,33,0.00,SCT,,0.00,WeatherDisplay:10.37,2013-06-14 16:07:00,
2013-06-14 09:09:00,76.4,44.4,29.97,West,265,0.0,0.0,32,0.00,SCT,,0.00,WeatherDisplay:10.37,2013-06-14 16:09:00,
2013-06-14 09:10:00,76.5,44.4,29.97,West,265,0.0,0.0,32,0.00,SCT,,0.00,WeatherDisplay:10.37,2013-06-14 16:10:00,
2013-06-14 09:11:00,76.6,44.5,29.97,West,265,0.0,0.0,32,0.00,SCT,,0.00,WeatherDisplay:10.37,2013-06-14 16:11:00,
2013-06-14 09:12:00,76.6,44.5,29.97,West,276,0.0,0.0,32,0.00,SCT,,0.00,WeatherDisplay:10.37,2013-06-14 16:12:00,
2013-06-14 09:15:00,76.7,42.9,29.97,West,280,0.0,0.0,30,0.00,SCT,,0.00,WeatherDisplay:10.37,2013-06-14 16:15:00,
2013-06-14 09:16:00,76.8,43.9,29.96,West,280,0.0,0.0,31,0.00,SCT,,0.00,WeatherDisplay:10.37,2013-06-14 16:16:00,
2013-06-14 09:17:00,77.0,44.9,29.96,West,280,0.0,0.0,32,0.00,SCT,,0.00,WeatherDisplay:10.37,2013-06-14 16:17:00,
2013-06-14 09:20:00,77.3,43.4,29.97,WNW,288,0.0,0.0,30,0.00,SCT,,0.00,WeatherDisplay:10.37,2013-06-14 16:20:00,
2013-06-14 09:21:00,77.3,43.4,29.96,NNE,14,0.0,0.0,30,0.00,SCT,,0.00,WeatherDisplay:10.37,2013-06-14 16:21:00,
2013-06-14 09:22:00,77.5,43.6,29.96,NNE,14,0.0,0.0,30,0.00,SCT,,0.00,WeatherDisplay:10.37,2013-06-14 16:22:00,
2013-06-14 09:23:00,77.5,43.6,29.97,NNE,14,0.0,0.0,30,0.00,SCT,,0.00,WeatherDisplay:10.37,2013-06-14 16:23:00,
2013-06-14 09:24:00,77.7,42.0,29.97,NNE,14,0.0,0.0,28,0.00,SCT,,0.00,WeatherDisplay:10.37,2013-06-14 16:24:00,
2013-06-14 09:26:00,78.0,43.2,29.97,North,359,0.0,0.0,29,0.00,SCT,,0.00,WeatherDisplay:10.37,2013-06-14 16:26:00,
2013-06-14 09:27:00,78.1,42.3,29.96,NNE,16,0.0,0.0,28,0.00,SCT,,0.00,WeatherDisplay:10.37,2013-06-14 16:27:00,
2013-06-14 09:28:00,78.1,42.3,29.96,NNE,24,0.0,0.0,28,0.00,SCT,,0.00,WeatherDisplay:10.37,2013-06-14 16:28:00,
2013-06-14 09:29:00,78.2,42.4,29.97,NNE,24,0.0,0.0,28,0.00,SCT,,0.00,WeatherDisplay:10.37,2013-06-14 16:29:00,
2013-06-14 09:31:00,78.5,41.7,29.96,NNE,24,0.0,0.0,27,0.00,SCT,,0.00,WeatherDisplay:10.37,2013-06-14 16:31:00,
2013-06-14 09:32:00,78.6,42.8,29.96,NNE,24,0.0,0.0,28,0.00,SCT,,0.00,WeatherDisplay:10.37,2013-06-14 16:32:00,
2013-06-14 09:33:00,78.7,41.9,29.96,NNE,24,0.0,0.0,27,0.00,SCT,,0.00,WeatherDisplay:10.37,2013-06-14 16:33:00,
2013-06-14 09:34:00,78.7,41.9,29.96,NNE,24,0.0,0.0,27,0.00,SCT,,0.00,WeatherDisplay:10.37,2013-06-14 16:34:00,
2013-06-14 09:35:00,78.8,42.0,29.96,NNE,24,0.0,0.0,27,0.00,SCT,,0.00,WeatherDisplay:10.37,2013-06-14 16:35:00,
2013-06-14 09:36:00,78.9,42.1,29.96,NNE,24,0.0,0.0,27,0.00,SCT,,0.00,WeatherDisplay:10.37,2013-06-14 16:36:00,
2013-06-14 09:38:00,79.1,42.2,29.96,NNE,24,0.0,0.0,27,0.00,SCT,,0.00,WeatherDisplay:10.37,2013-06-14 16:38:00,
2013-06-14 09:39:00,79.1,42.2,29.96,NNE,23,0.0,0.0,27,0.00,SCT,,0.00,WeatherDisplay:10.37,2013-06-14 16:39:00,
2013-06-14 09:40:00,79.3,42.4,29.96,NE,45,0.0,0.0,27,0.00,SCT,,0.00,WeatherDisplay:10.37,2013-06-14 16:40:00,
2013-06-14 09:41:00,79.4,42.5,29.96,NNW,327,0.0,0.0,27,0.00,SCT,,0.00,WeatherDisplay:10.37,2013-06-14 16:41:00,
2013-06-14 09:44:00,79.5,42.6,29.96,WNW,284,0.0,0.0,27,0.00,SCT,,0.00,WeatherDisplay:10.37,2013-06-14 16:44:00,
2013-06-14 09:46:00,79.7,40.8,29.96,WNW,299,0.0,0.0,25,0.00,SCT,,0.00,WeatherDisplay:10.37,2013-06-14 16:46:00,
2013-06-14 09:47:00,79.8,41.9,29.96,WNW,299,0.0,0.0,26,0.00,SCT,,0.00,WeatherDisplay:10.37,2013-06-14 16:47:00,
2013-06-14 09:49:00,80.1,41.1,29.96,West,281,0.0,0.0,25,0.00,SCT,,0.00,WeatherDisplay:10.37,2013-06-14 16:49:00,
2013-06-14 09:52:00,80.3,40.2,29.96,WSW,247,0.0,0.0,24,0.00,SCT,,0.00,WeatherDisplay:10.37,2013-06-14 16:52:00,
2013-06-14 09:53:00,80.1,41.1,29.96,WSW,246,0.0,0.0,25,0.00,SCT,,0.00,WeatherDisplay:10.37,2013-06-14 16:53:00,
2013-06-14 09:54:00,80.1,42.1,29.96,SW,219,0.0,0.0,26,0.00,SCT,,0.00,WeatherDisplay:10.37,2013-06-14 16:54:00,
2013-06-14 09:55:00,80.1,41.1,29.96,SSW,211,0.0,0.0,25,0.00,SCT,,0.00,WeatherDisplay:10.37,2013-06-14 16:55:00,
2013-06-14 09:57:00,80.3,41.3,29.96,WSW,248,0.0,0.0,25,0.00,SCT,,0.00,WeatherDisplay:10.37,2013-06-14 16:57:00,
2013-06-14 09:58:00,80.4,41.3,29.96,WSW,250,0.0,0.0,25,0.00,SCT,,0.00,WeatherDisplay:10.37,2013-06-14 16:58:00,
2013-06-14 09:59:00,80.2,40.1,29.96,SW,215,0.0,0.0,24,0.00,SCT,,0.00,WeatherDisplay:10.37,2013-06-14 16:59:00,
2013-06-14 10:00:00,80.2,40.1,29.96,WSW,250,0.0,0.0,24,0.00,SCT,,0.00,WeatherDisplay:10.37,2013-06-14 17:00:00,
2013-06-14 10:01:00,80.2,42.2,29.96,WSW,246,0.0,0.0,26,0.00,SCT,,0.00,WeatherDisplay:10.37,2013-06-14 17:01:00,
2013-06-14 10:03:00,80.6,42.5,29.96,SSW,209,0.0,0.0,26,0.00,SCT,,0.00,WeatherDisplay:10.37,2013-06-14 17:03:00,
2013-06-14 10:04:00,80.8,40.6,29.96,SSW,209,0.0,0.0,24,0.00,SCT,,0.00,WeatherDisplay:10.37,2013-06-14 17:04:00,
2013-06-14 10:05:00,80.8,40.6,29.96,SSW,209,0.0,0.0,24,0.00,SCT,,0.00,WeatherDisplay:10.37,2013-06-14 17:05:00,
2013-06-14 10:06:00,80.9,40.7,29.96,SSW,209,0.0,0.0,24,0.00,SCT,,0.00,WeatherDisplay:10.37,2013-06-14 17:06:00,
2013-06-14 10:08:00,81.3,42.1,29.96,SSW,209,0.0,0.0,25,0.00,SCT,,0.00,WeatherDisplay:10.37,2013-06-14 17:08:00,
2013-06-14 10:10:00,81.3,41.0,29.96,South,191,0.0,0.0,24,0.00,SCT,,0.00,WeatherDisplay:10.37,2013-06-14 17:10:00,
2013-06-14 10:12:00,81.5,41.2,29.96,WSW,238,0.0,0.0,24,0.00,SCT,,0.00,WeatherDisplay:10.37,2013-06-14 17:12:00,
2013-06-14 10:14:00,81.5,40.1,29.96,SW,236,0.0,0.0,23,0.00,SCT,,0.00,WeatherDisplay:10.37,2013-06-14 17:14:00,
2013-06-14 10:16:00,81.4,41.1,29.96,WSW,250,0.0,0.0,24,0.00,SCT,,0.00,WeatherDisplay:10.37,2013-06-14 17:16:00,
2013-06-14 10:17:00,81.4,40.0,29.96,WSW,250,0.0,0.0,23,0.00,SCT,,0.00,WeatherDisplay:10.37,2013-06-14 17:17:00,
2013-06-14 10:20:00,81.5,41.2,29.96,WSW,243,0.0,0.0,24,0.00,SCT,,0.00,WeatherDisplay:10.37,2013-06-14 17:20:00,
2013-06-14 10:21:00,81.6,41.3,29.96,WSW,252,0.0,0.0,24,0.00,SCT,,0.00,WeatherDisplay:10.37,2013-06-14 17:21:00,
2013-06-14 10:22:00,81.8,40.4,29.96,SW,216,0.0,0.0,23,0.00,SCT,,0.00,WeatherDisplay:10.37,2013-06-14 17:22:00,
2013-06-14 10:23:00,81.9,40.5,29.96,SSW,211,0.0,0.0,23,0.00,SCT,,0.00,WeatherDisplay:10.37,2013-06-14 17:23:00,
2013-06-14 10:26:00,81.9,38.1,29.96,SW,215,0.0,0.0,21,0.00,SCT,,0.00,WeatherDisplay:10.37,2013-06-14 17:26:00,
2013-06-14 10:27:00,81.8,38.0,29.96,SW,214,0.0,0.0,21,0.00,SCT,,0.00,WeatherDisplay:10.37,2013-06-14 17:27:00,
2013-06-14 10:28:00,81.9,39.3,29.96,SW,214,0.0,0.0,22,0.00,SCT,,0.00,WeatherDisplay:10.37,2013-06-14 17:28:00,
2013-06-14 10:31:00,82.1,39.5,29.96,SSE,163,0.0,0.0,22,0.00,SCT,,0.00,WeatherDisplay:10.37,2013-06-14 17:31:00,
2013-06-14 10:33:00,82.3,38.4,29.96,WSW,247,0.0,0.0,21,0.00,SCT,,0.00,WeatherDisplay:10.37,2013-06-14 17:33:00,
2013-06-14 10:34:00,82.3,39.6,29.96,West,263,0.0,0.0,22,0.00,SCT,,0.00,WeatherDisplay:10.37,2013-06-14 17:34:00,
2013-06-14 10:36:00,82.1,38.3,29.96,WSW,251,0.0,0.0,21,0.00,SCT,,0.00,WeatherDisplay:10.37,2013-06-14 17:36:00,
2013-06-14 10:38:00,82.1,40.6,29.95,WSW,251,0.0,0.0,23,0.00,SCT,,0.00,WeatherDisplay:10.37,2013-06-14 17:38:00,
2013-06-14 10:39:00,82.1,40.6,29.96,WSW,251,0.0,0.0,23,0.00,SCT,,0.00,WeatherDisplay:10.37,2013-06-14 17:39:00,
2013-06-14 10:41:00,82.5,41.0,29.95,NE,44,0.0,0.0,23,0.00,SCT,,0.00,WeatherDisplay:10.37,2013-06-14 17:41:00,
2013-06-14 10:43:00,82.9,40.1,29.96,NE,45,0.0,0.0,22,0.00,SCT,,0.00,WeatherDisplay:10.37,2013-06-14 17:43:00,
2013-06-14 10:44:00,82.9,40.1,29.96,NE,45,0.0,0.0,22,0.00,SCT,,0.00,WeatherDisplay:10.37,2013-06-14 17:44:00,
2013-06-14 10:46:00,82.8,40.1,29.95,WSW,247,0.0,0.0,22,0.00,SCT,,0.00,WeatherDisplay:10.37,2013-06-14 17:46:00,
2013-06-14 10:47:00,82.8,40.1,29.95,WSW,247,0.0,0.0,22,0.00,SCT,,0.00,WeatherDisplay:10.37,2013-06-14 17:47:00,
2013-06-14 10:48:00,82.8,38.9,29.95,WSW,247,0.0,0.0,21,0.00,SCT,,0.00,WeatherDisplay:10.37,2013-06-14 17:48:00,
2013-06-14 10:49:00,82.6,39.9,29.96,WSW,247,0.0,0.0,22,0.00,SCT,,0.00,WeatherDisplay:10.37,2013-06-14 17:49:00,
2013-06-14 10:50:00,82.6,39.9,29.96,WSW,248,0.0,0.0,22,0.00,SCT,,0.00,WeatherDisplay:10.37,2013-06-14 17:50:00,
2013-06-14 10:52:00,82.6,39.9,29.96,WSW,247,0.0,0.0,22,0.00,SCT,,0.00,WeatherDisplay:10.37,2013-06-14 17:52:00,
2013-06-14 10:55:00,82.9,40.1,29.95,WSW,247,0.0,0.0,22,0.00,SCT,,0.00,WeatherDisplay:10.37,2013-06-14 17:55:00,
2013-06-14 10:56:00,83.1,39.1,29.95,WSW,247,0.0,0.0,21,0.00,SCT,,0.00,WeatherDisplay:10.37,2013-06-14 17:56:00,
2013-06-14 10:57:00,83.0,39.0,29.95,WSW,252,0.0,0.0,21,0.00,SCT,,0.00,WeatherDisplay:10.37,2013-06-14 17:57:00,
2013-06-14 10:59:00,82.9,38.9,29.95,WSW,257,0.0,0.0,21,0.00,SCT,,0.00,WeatherDisplay:10.37,2013-06-14 17:59:00,
2013-06-14 11:00:00,83.1,40.3,29.95,WSW,257,0.0,0.0,22,0.00,SCT,,0.00,WeatherDisplay:10.37,2013-06-14 18:00:00,
2013-06-14 11:01:00,83.2,39.2,29.95,NNW,345,0.0,0.0,21,0.00,SCT,,0.00,WeatherDisplay:10.37,2013-06-14 18:01:00,
2013-06-14 11:02:00,83.4,39.4,29.95,NNW,336,0.0,0.0,21,0.00,SCT,,0.00,WeatherDisplay:10.37,2013-06-14 18:02:00,
2013-06-14 11:03:00,83.4,39.4,29.95,NNW,336,0.0,0.0,21,0.00,SCT,,0.00,WeatherDisplay:10.37,2013-06-14 18:03:00,
2013-06-14 11:04:00,83.7,40.8,29.95,North,350,0.0,0.0,22,0.00,SCT,,0.00,WeatherDisplay:10.37,2013-06-14 18:04:00,
2013-06-14 11:06:00,83.8,38.4,29.95,North,359,0.0,0.0,20,0.00,SCT,,0.00,WeatherDisplay:10.37,2013-06-14 18:06:00,
2013-06-14 11:07:00,83.8,38.4,29.95,North,358,0.0,0.0,20,0.00,SCT,,0.00,WeatherDisplay:10.37,2013-06-14 18:07:00,
2013-06-14 11:08:00,83.8,39.7,29.95,ENE,61,0.0,0.0,21,0.00,SCT,,0.00,WeatherDisplay:10.37,2013-06-14 18:08:00,
2013-06-14 11:10:00,84.3,42.5,29.95,ENE,78,0.0,0.0,23,0.00,SCT,,0.00,WeatherDisplay:10.37,2013-06-14 18:10:00,
2013-06-14 11:11:00,84.4,41.4,29.95,ENE,77,0.0,0.0,22,0.00,SCT,,0.00,WeatherDisplay:10.37,2013-06-14 18:11:00,
2013-06-14 11:12:00,84.5,40.3,29.95,ENE,77,0.0,0.0,21,0.00,SCT,,0.00,WeatherDisplay:10.37,2013-06-14 18:12:00,
2013-06-14 11:13:00,84.6,40.4,29.95,ENE,77,0.0,0.0,21,0.00,SCT,,0.00,WeatherDisplay:10.37,2013-06-14 18:13:00,
2013-06-14 11:15:00,84.8,40.5,29.95,ENE,77,0.0,0.0,21,0.00,SCT,,0.00,WeatherDisplay:10.37,2013-06-14 18:15:00,
2013-06-14 11:16:00,84.9,39.3,29.95,SW,224,0.0,0.0,20,0.00,SCT,,0.00,WeatherDisplay:10.37,2013-06-14 18:16:00,
2013-06-14 11:18:00,85.0,40.7,29.95,SW,224,0.0,0.0,21,0.00,SCT,,0.00,WeatherDisplay:10.37,2013-06-14 18:18:00,
2013-06-14 11:19:00,85.2,40.8,29.95,SW,224,0.0,0.0,21,0.00,SCT,,0.00,WeatherDisplay:10.37,2013-06-14 18:19:00,
2013-06-14 11:21:00,85.6,39.9,29.95,SE,132,0.0,0.0,20,0.00,SCT,,0.00,WeatherDisplay:10.37,2013-06-14 18:21:00,
2013-06-14 11:22:00,85.6,39.9,29.95,SE,144,0.0,0.0,20,0.00,SCT,,0.00,WeatherDisplay:10.37,2013-06-14 18:22:00,
2013-06-14 11:23:00,85.9,41.4,29.95,SSW,201,0.0,0.0,21,0.00,SCT,,0.00,WeatherDisplay:10.37,2013-06-14 18:23:00,
2013-06-14 11:25:00,86.0,41.5,29.95,SW,223,0.0,0.0,21,0.00,SCT,,0.00,WeatherDisplay:10.37,2013-06-14 18:25:00,
2013-06-14 11:27:00,85.8,38.8,29.95,WSW,253,0.0,0.0,19,0.00,SCT,,0.00,WeatherDisplay:10.37,2013-06-14 18:27:00,
2013-06-14 11:28:00,85.7,38.7,29.95,West,268,0.0,0.0,19,0.00,SCT,,0.00,WeatherDisplay:10.37,2013-06-14 18:28:00,
2013-06-14 11:29:00,85.4,38.4,29.95,West,268,0.0,0.0,19,0.00,SCT,,0.00,WeatherDisplay:10.37,2013-06-14 18:29:00,
2013-06-14 11:31:00,85.1,38.2,29.95,West,268,0.0,0.0,19,0.00,SCT,,0.00,WeatherDisplay:10.37,2013-06-14 18:31:00,
2013-06-14 11:33:00,85.2,40.8,29.95,North,1,0.0,0.0,21,0.00,SCT,,0.00,WeatherDisplay:10.37,2013-06-14 18:33:00,
2013-06-14 11:34:00,85.5,38.5,29.95,NE,45,0.0,0.0,19,0.00,SCT,,0.00,WeatherDisplay:10.37,2013-06-14 18:34:00,
2013-06-14 11:35:00,85.6,38.6,29.95,NE,45,0.0,0.0,19,0.00,SCT,,0.00,WeatherDisplay:10.37,2013-06-14 18:35:00,
2013-06-14 11:38:00,85.8,40.1,29.95,NE,45,0.0,0.0,20,0.00,SCT,,0.00,WeatherDisplay:10.37,2013-06-14 18:38:00,
2013-06-14 11:40:00,86.3,39.2,29.95,SSW,213,0.0,0.0,19,0.00,SCT,,0.00,WeatherDisplay:10.37,2013-06-14 18:40:00,
2013-06-14 11:41:00,86.3,39.2,29.94,North,10,0.0,0.0,19,0.00,SCT,,0.00,WeatherDisplay:10.37,2013-06-14 18:41:00,
2013-06-14 11:43:00,86.2,39.1,29.95,North,4,0.0,0.0,19,0.00,SCT,,0.00,WeatherDisplay:10.37,2013-06-14 18:43:00,
2013-06-14 11:44:00,86.0,38.9,29.95,North,354,0.0,0.0,19,0.00,SCT,,0.00,WeatherDisplay:10.37,2013-06-14 18:44:00,
2013-06-14 11:47:00,85.8,38.8,29.94,NNE,26,0.0,0.0,19,0.00,SCT,,0.00,WeatherDisplay:10.37,2013-06-14 18:47:00,
2013-06-14 11:48:00,85.9,38.8,29.94,NNW,341,0.0,0.0,19,0.00,SCT,,0.00,WeatherDisplay:10.37,2013-06-14 18:48:00,
2013-06-14 11:49:00,85.9,38.8,29.94,North,353,0.0,0.0,19,0.00,SCT,,0.00,WeatherDisplay:10.37,2013-06-14 18:49:00,
2013-06-14 11:53:00,86.0,37.5,29.94,WSW,256,0.0,0.0,18,0.00,SCT,,0.00,WeatherDisplay:10.37,2013-06-14 18:53:00,
2013-06-14 11:54:00,85.9,37.5,29.94,WSW,256,0.0,0.0,18,0.00,SCT,,0.00,WeatherDisplay:10.37,2013-06-14 18:54:00,
2013-06-14 11:55:00,86.0,38.9,29.94,WSW,256,0.0,0.0,19,0.00,SCT,,0.00,WeatherDisplay:10.37,2013-06-14 18:55:00,
2013-06-14 11:58:00,86.1,37.6,29.94,West,260,0.0,0.0,18,0.00,SCT,,0.00,WeatherDisplay:10.37,2013-06-14 18:58:00,
2013-06-14 11:59:00,86.1,39.0,29.94,NW,304,0.0,0.0,19,0.00,SCT,,0.00,WeatherDisplay:10.37,2013-06-14 18:59:00,
2013-06-14 12:00:00,86.2,39.1,29.94,North,349,0.0,0.0,19,0.00,SCT,,0.00,WeatherDisplay:10.37,2013-06-14 19:00:00,
2013-06-14 12:04:00,86.6,39.4,29.94,NW,320,0.0,0.0,19,0.00,SCT,,0.00,WeatherDisplay:10.37,2013-06-14 19:04:00,
2013-06-14 12:05:00,86.7,39.5,29.94,West,274,0.0,0.0,19,0.00,SCT,,0.00,WeatherDisplay:10.37,2013-06-14 19:05:00,
2013-06-14 12:09:00,87.0,38.4,29.94,NNE,18,0.0,0.0,18,0.00,SCT,,0.00,WeatherDisplay:10.37,2013-06-14 19:09:00,
2013-06-14 12:10:00,87.1,39.8,29.94,NNE,18,0.0,0.0,19,0.00,SCT,,0.00,WeatherDisplay:10.37,2013-06-14 19:10:00,
2013-06-14 12:11:00,87.1,37.0,29.94,NW,320,0.0,0.0,17,0.00,SCT,,0.00,WeatherDisplay:10.37,2013-06-14 19:11:00,
2013-06-14 12:15:00,86.9,39.7,29.94,North,2,0.0,0.0,19,0.00,SCT,,0.00,WeatherDisplay:10.37,2013-06-14 19:15:00,
2013-06-14 12:16:00,87.1,38.4,29.94,North,2,0.0,0.0,18,0.00,SCT,,0.00,WeatherDisplay:10.37,2013-06-14 19:16:00,
2013-06-14 12:21:00,87.9,39.1,29.94,WSW,249,0.0,0.0,18,0.00,SCT,,0.00,WeatherDisplay:10.37,2013-06-14 19:21:00,
2013-06-14 12:22:00,88.0,37.7,29.94,WSW,249,0.0,0.0,17,0.00,SCT,,0.00,WeatherDisplay:10.37,2013-06-14 19:22:00,
2013-06-14 12:23:00,88.1,37.8,29.94,West,269,0.0,0.0,17,0.00,SCT,,0.00,WeatherDisplay:10.37,2013-06-14 19:23:00,
2013-06-14 12:26:00,88.6,46.1,29.94,SW,226,0.0,0.0,23,0.00,SCT,,0.00,WeatherDisplay:10.37,2013-06-14 19:26:00,
2013-06-14 12:27:00,88.8,46.2,29.94,SSW,198,0.0,0.0,23,0.00,SCT,,0.00,WeatherDisplay:10.37,2013-06-14 19:27:00,
2013-06-14 12:28:00,88.8,46.2,29.93,SSW,202,0.0,0.0,23,0.00,SCT,,0.00,WeatherDisplay:10.37,2013-06-14 19:28:00,
2013-06-14 12:31:00,89.0,45.2,29.94,ESE,115,0.0,0.0,22,0.00,SCT,,0.00,WeatherDisplay:10.37,2013-06-14 19:31:00,
2013-06-14 12:32:00,89.1,46.5,29.94,ESE,123,0.0,0.0,23,0.00,SCT,,0.00,WeatherDisplay:10.37,2013-06-14 19:32:00,
2013-06-14 12:34:00,89.3,46.6,29.93,ESE,123,0.0,0.0,23,0.00,SCT,,0.00,WeatherDisplay:10.37,2013-06-14 19:34:00,
2013-06-14 12:36:00,89.7,48.1,29.93,SE,130,0.0,0.0,24,0.00,SCT,,0.00,WeatherDisplay:10.37,2013-06-14 19:36:00,
2013-06-14 12:37:00,89.9,47.1,29.93,SSE,150,0.0,0.0,23,0.00,SCT,,0.00,WeatherDisplay:10.37,2013-06-14 19:37:00,
2013-06-14 12:39:00,89.9,48.3,29.93,South,187,0.0,0.0,24,0.00,SCT,,0.00,WeatherDisplay:10.37,2013-06-14 19:39:00,
2013-06-14 12:40:00,89.8,48.2,29.93,SSE,157,0.0,0.0,24,0.00,SCT,,0.00,WeatherDisplay:10.37,2013-06-14 19:40:00,
2013-06-14 12:42:00,89.9,48.3,29.93,ESE,102,0.0,0.0,24,0.00,SCT,,0.00,WeatherDisplay:10.37,2013-06-14 19:42:00,
2013-06-14 12:44:00,90.1,48.4,29.93,SW,232,0.0,0.0,24,0.00,SCT,,0.00,WeatherDisplay:10.37,2013-06-14 19:44:00,
2013-06-14 12:45:00,90.2,48.5,29.93,WSW,239,0.0,0.0,24,0.00,SCT,,0.00,WeatherDisplay:10.37,2013-06-14 19:45:00,
2013-06-14 12:46:00,90.3,48.6,29.93,ESE,123,0.0,0.0,24,0.00,SCT,,0.00,WeatherDisplay:10.37,2013-06-14 19:46:00,
2013-06-14 12:47:00,90.5,48.8,29.93,SE,127,0.0,0.0,24,0.00,SCT,,0.00,WeatherDisplay:10.37,2013-06-14 19:47:00,
2013-06-14 12:48:00,90.6,47.7,29.93,NE,48,0.0,0.0,23,0.00,SCT,,0.00,WeatherDisplay:10.37,2013-06-14 19:48:00,
2013-06-14 12:49:00,90.7,47.8,29.93,ESE,116,0.0,0.0,23,0.00,SCT,,0.00,WeatherDisplay:10.37,2013-06-14 19:49:00,
2013-06-14 12:50:00,90.8,47.9,29.93,ESE,119,0.0,0.0,23,0.00,SCT,,0.00,WeatherDisplay:10.37,2013-06-14 19:50:00,
2013-06-14 12:51:00,90.9,48.0,29.93,South,185,0.0,0.0,23,0.00,SCT,,0.00,WeatherDisplay:10.37,2013-06-14 19:51:00,
2013-06-14 12:52:00,91.0,48.1,29.93,ESE,112,0.0,0.0,23,0.00,SCT,,0.00,WeatherDisplay:10.37,2013-06-14 19:52:00,
2013-06-14 12:53:00,91.0,48.1,29.93,ENE,76,0.0,0.0,23,0.00,SCT,,0.00,WeatherDisplay:10.37,2013-06-14 19:53:00,
2013-06-14 12:55:00,91.0,48.1,29.93,NE,55,0.0,0.0,23,0.00,SCT,,0.00,WeatherDisplay:10.37,2013-06-14 19:55:00,
2013-06-14 12:56:00,91.0,46.9,29.93,SW,227,0.0,0.0,22,0.00,SCT,,0.00,WeatherDisplay:10.37,2013-06-14 19:56:00,
2013-06-14 12:58:00,91.0,48.1,29.93,SE,124,0.0,0.0,23,0.00,SCT,,0.00,WeatherDisplay:10.37,2013-06-14 19:58:00,
2013-06-14 12:59:00,90.8,47.9,29.93,SSW,204,0.0,0.0,23,0.00,SCT,,0.00,WeatherDisplay:10.37,2013-06-14 19:59:00,
2013-06-14 13:00:00,90.7,47.8,29.93,SSW,206,0.0,0.0,23,0.00,SCT,,0.00,WeatherDisplay:10.37,2013-06-14 20:00:00,
2013-06-14 13:02:00,90.3,47.5,29.93,SSE,152,0.0,0.0,23,0.00,SCT,,0.00,WeatherDisplay:10.37,2013-06-14 20:02:00,
2013-06-14 13:03:00,90.3,47.5,29.93,SSE,153,0.0,0.0,23,0.00,SCT,,0.00,WeatherDisplay:10.37,2013-06-14 20:03:00,
2013-06-14 13:05:00,90.4,47.6,29.93,ESE,114,0.0,0.0,23,0.00,SCT,,0.00,WeatherDisplay:10.37,2013-06-14 20:05:00,
2013-06-14 13:08:00,90.6,47.7,29.93,ESE,112,0.0,0.0,23,0.00,SCT,,0.00,WeatherDisplay:10.37,2013-06-14 20:08:00,
2013-06-14 13:10:00,90.6,47.7,29.93,WNW,298,0.0,0.0,23,0.00,SCT,,0.00,WeatherDisplay:10.37,2013-06-14 20:10:00,
2013-06-14 13:12:00,90.7,47.8,29.93,East,80,0.0,0.0,23,0.00,SCT,,0.00,WeatherDisplay:10.37,2013-06-14 20:12:00,
2013-06-14 13:13:00,90.8,47.9,29.93,SSE,147,0.0,0.0,23,0.00,SCT,,0.00,WeatherDisplay:10.37,2013-06-14 20:13:00,
2013-06-14 13:14:00,90.8,45.5,29.93,East,92,0.0,0.0,21,0.00,SCT,,0.00,WeatherDisplay:10.37,2013-06-14 20:14:00,
2013-06-14 13:15:00,90.8,46.7,29.93,East,92,0.0,0.0,22,0.00,SCT,,0.00,WeatherDisplay:10.37,2013-06-14 20:15:00,
2013-06-14 13:18:00,91.0,45.6,29.92,ENE,78,0.0,0.0,21,0.00,SCT,,0.00,WeatherDisplay:10.37,2013-06-14 20:18:00,
2013-06-14 13:19:00,91.0,46.9,29.93,East,83,0.0,0.0,22,0.00,SCT,,0.00,WeatherDisplay:10.37,2013-06-14 20:19:00,
2013-06-14 13:21:00,91.0,46.9,29.92,SE,124,0.0,0.0,22,0.00,SCT,,0.00,WeatherDisplay:10.37,2013-06-14 20:21:00,
2013-06-14 13:24:00,91.1,47.0,29.92,ESE,116,0.0,0.0,22,0.00,SCT,,0.00,WeatherDisplay:10.37,2013-06-14 20:24:00,
2013-06-14 13:25:00,91.3,45.9,29.92,SE,133,0.0,0.0,21,0.00,SCT,,0.00,WeatherDisplay:10.37,2013-06-14 20:25:00,
2013-06-14 13:26:00,91.3,45.9,29.92,SE,136,0.0,0.0,21,0.00,SCT,,0.00,WeatherDisplay:10.37,2013-06-14 20:26:00,
2013-06-14 13:29:00,91.5,46.1,29.92,SE,131,0.0,0.0,21,0.00,SCT,,0.00,WeatherDisplay:10.37,2013-06-14 20:29:00,
2013-06-14 13:30:00,91.5,46.1,29.92,SE,146,0.0,0.0,21,0.00,SCT,,0.00,WeatherDisplay:10.37,2013-06-14 20:30:00,
2013-06-14 13:31:00,91.5,46.1,29.92,South,186,0.0,0.0,21,0.00,SCT,,0.00,WeatherDisplay:10.37,2013-06-14 20:31:00,
2013-06-14 13:32:00,91.5,46.1,29.92,South,188,0.0,0.0,21,0.00,SCT,,0.00,WeatherDisplay:10.37,2013-06-14 20:32:00,
2013-06-14 13:35:00,91.8,46.3,29.92,East,96,0.0,0.0,21,0.00,SCT,,0.00,WeatherDisplay:10.37,2013-06-14 20:35:00,
2013-06-14 13:36:00,91.9,46.4,29.92,SE,129,0.0,0.0,21,0.00,SCT,,0.00,WeatherDisplay:10.37,2013-06-14 20:36:00,
2013-06-14 13:37:00,91.9,45.1,29.92,ESE,110,0.0,0.0,20,0.00,SCT,,0.00,WeatherDisplay:10.37,2013-06-14 20:37:00,
2013-06-14 13:38:00,91.9,46.4,29.92,SE,124,0.0,0.0,21,0.00,SCT,,0.00,WeatherDisplay:10.37,2013-06-14 20:38:00,
2013-06-14 13:40:00,92.1,46.5,29.92,SE,128,0.0,0.0,21,0.00,SCT,,0.00,WeatherDisplay:10.37,2013-06-14 20:40:00,
2013-06-14 13:41:00,92.1,46.6,29.92,SSW,203,0.0,0.0,21,0.00,SCT,,0.00,WeatherDisplay:10.37,2013-06-14 20:41:00,
2013-06-14 13:42:00,92.2,46.6,29.92,SSW,198,0.0,0.0,21,0.00,SCT,,0.00,WeatherDisplay:10.37,2013-06-14 20:42:00,
2013-06-14 13:43:00,92.3,45.4,29.92,ESE,105,0.0,0.0,20,0.00,SCT,,0.00,WeatherDisplay:10.37,2013-06-14 20:43:00,
2013-06-14 13:46:00,92.4,45.5,29.92,East,98,0.0,0.0,20,0.00,SCT,,0.00,WeatherDisplay:10.37,2013-06-14 20:46:00,
2013-06-14 13:47:00,92.4,46.8,29.92,ESE,120,0.0,0.0,21,0.00,SCT,,0.00,WeatherDisplay:10.37,2013-06-14 20:47:00,
2013-06-14 13:49:00,92.4,46.8,29.92,NE,40,0.0,0.0,21,0.00,SCT,,0.00,WeatherDisplay:10.37,2013-06-14 20:49:00,
2013-06-14 13:51:00,92.5,45.6,29.92,SSW,202,0.0,0.0,20,0.00,SCT,,0.00,WeatherDisplay:10.37,2013-06-14 20:51:00,
2013-06-14 13:52:00,92.5,45.6,29.92,ENE,73,0.0,0.0,20,0.00,SCT,,0.00,WeatherDisplay:10.37,2013-06-14 20:52:00,
2013-06-14 13:53:00,92.5,45.6,29.92,ESE,102,0.0,0.0,20,0.00,SCT,,0.00,WeatherDisplay:10.37,2013-06-14 20:53:00,
2013-06-14 13:54:00,92.6,47.0,29.92,SE,136,0.0,0.0,21,0.00,SCT,,0.00,WeatherDisplay:10.37,2013-06-14 20:54:00,
2013-06-14 13:55:00,92.5,44.2,29.92,SE,133,0.0,0.0,19,0.00,SCT,,0.00,WeatherDisplay:10.37,2013-06-14 20:55:00,
2013-06-14 13:57:00,92.3,46.7,29.92,SW,219,0.0,0.0,21,0.00,SCT,,0.00,WeatherDisplay:10.37,2013-06-14 20:57:00,
2013-06-14 13:59:00,92.5,45.6,29.92,SE,127,0.0,0.0,20,0.00,SCT,,0.00,WeatherDisplay:10.37,2013-06-14 20:59:00,
2013-06-14 14:00:00,92.5,45.6,29.92,ESE,122,0.0,0.0,20,0.00,SCT,,0.00,WeatherDisplay:10.37,2013-06-14 21:00:00,
2013-06-14 14:01:00,92.5,45.6,29.92,ESE,122,0.0,0.0,20,0.00,SCT,,0.00,WeatherDisplay:10.37,2013-06-14 21:01:00,
2013-06-14 14:03:00,92.5,45.6,29.92,SSE,153,0.0,0.0,20,0.00,SCT,,0.00,WeatherDisplay:10.37,2013-06-14 21:03:00,
2013-06-14 14:04:00,92.6,47.0,29.92,East,92,0.0,0.0,21,0.00,SCT,,0.00,WeatherDisplay:10.37,2013-06-14 21:04:00,
2013-06-14 14:05:00,92.6,45.7,29.92,ESE,112,0.0,0.0,20,0.00,SCT,,0.00,WeatherDisplay:10.37,2013-06-14 21:05:00,
2013-06-14 14:07:00,92.6,47.0,29.92,ESE,109,0.0,0.0,21,0.00,SCT,,0.00,WeatherDisplay:10.37,2013-06-14 21:07:00,
2013-06-14 14:08:00,92.4,44.2,29.92,WNW,303,0.0,0.0,19,0.00,SCT,,0.00,WeatherDisplay:10.37,2013-06-14 21:08:00,
2013-06-14 14:09:00,92.3,44.1,29.92,East,80,0.0,0.0,19,0.00,SCT,,0.00,WeatherDisplay:10.37,2013-06-14 21:09:00,
2013-06-14 14:12:00,92.5,46.9,29.92,SSW,200,0.0,0.0,21,0.00,SCT,,0.00,WeatherDisplay:10.37,2013-06-14 21:12:00,
2013-06-14 14:13:00,92.5,45.6,29.91,SE,135,0.0,0.0,20,0.00,SCT,,0.00,WeatherDisplay:10.37,2013-06-14 21:13:00,
2013-06-14 14:14:00,92.6,47.0,29.92,ESE,113,0.0,0.0,21,0.00,SCT,,0.00,WeatherDisplay:10.37,2013-06-14 21:14:00,
2013-06-14 14:15:00,92.5,45.6,29.92,ESE,113,0.0,0.0,20,0.00,SCT,,0.00,WeatherDisplay:10.37,2013-06-14 21:15:00,
2013-06-14 14:17:00,92.5,46.9,29.91,SE,124,0.0,0.0,21,0.00,SCT,,0.00,WeatherDisplay:10.37,2013-06-14 21:17:00,
2013-06-14 14:18:00,92.5,46.9,29.91,East,95,0.0,0.0,21,0.00,SCT,,0.00,WeatherDisplay:10.37,2013-06-14 21:18:00,
2013-06-14 14:19:00,92.5,45.6,29.91,ESE,106,0.0,0.0,20,0.00,SCT,,0.00,WeatherDisplay:10.37,2013-06-14 21:19:00,
2013-06-14 14:20:00,92.5,46.9,29.91,ENE,72,0.0,0.0,21,0.00,SCT,,0.00,WeatherDisplay:10.37,2013-06-14 21:20:00,
2013-06-14 14:22:00,92.5,46.9,29.91,ENE,77,0.0,0.0,21,0.00,SCT,,0.00,WeatherDisplay:10.37,2013-06-14 21:22:00,
2013-06-14 14:24:00,92.6,47.0,29.91,East,99,0.0,0.0,21,0.00,SCT,,0.00,WeatherDisplay:10.37,2013-06-14 21:24:00,
2013-06-14 14:25:00,92.7,47.0,29.91,ESE,111,0.0,0.0,21,0.00,SCT,,0.00,WeatherDisplay:10.37,2013-06-14 21:25:00,
2013-06-14 14:28:00,92.8,47.1,29.91,SE,139,0.0,0.0,21,0.00,SCT,,0.00,WeatherDisplay:10.37,2013-06-14 21:28:00,
2013-06-14 14:30:00,92.8,47.1,29.91,SW,228,0.0,0.0,21,0.00,SCT,,0.00,WeatherDisplay:10.37,2013-06-14 21:30:00,
2013-06-14 14:33:00,92.3,46.7,29.91,SE,137,0.0,0.0,21,0.00,SCT,,0.00,WeatherDisplay:10.37,2013-06-14 21:33:00,
2013-06-14 14:34:00,92.3,46.7,29.91,SSE,163,0.0,0.0,21,0.00,SCT,,0.00,WeatherDisplay:10.37,2013-06-14 21:34:00,
2013-06-14 14:35:00,92.4,46.8,29.91,SSW,193,0.0,0.0,21,0.00,SCT,,0.00,WeatherDisplay:10.37,2013-06-14 21:35:00,
2013-06-14 14:36:00,92.5,46.9,29.91,NNE,23,0.0,0.0,21,0.00,SCT,,0.00,WeatherDisplay:10.37,2013-06-14 21:36:00,
2013-06-14 14:39:00,92.1,46.6,29.91,SSE,157,0.0,0.0,21,0.00,SCT,,0.00,WeatherDisplay:10.37,2013-06-14 21:39:00,
2013-06-14 14:40:00,92.1,46.6,29.91,SSE,161,0.0,0.0,21,0.00,SCT,,0.00,WeatherDisplay:10.37,2013-06-14 21:40:00,
2013-06-14 14:41:00,92.1,46.6,29.90,South,170,0.0,0.0,21,0.00,SCT,,0.00,WeatherDisplay:10.37,2013-06-14 21:41:00,
2013-06-14 14:42:00,92.2,46.6,29.91,SSE,153,0.0,0.0,21,0.00,SCT,,0.00,WeatherDisplay:10.37,2013-06-14 21:42:00,
2013-06-14 14:46:00,92.5,46.9,29.90,ESE,123,0.0,0.0,21,0.00,SCT,,0.00,WeatherDisplay:10.37,2013-06-14 21:46:00,
2013-06-14 14:47:00,92.7,47.0,29.90,SSW,210,0.0,0.0,21,0.00,SCT,,0.00,WeatherDisplay:10.37,2013-06-14 21:47:00,
2013-06-14 14:51:00,92.4,46.8,29.90,South,185,0.0,0.0,21,0.00,SCT,,0.00,WeatherDisplay:10.37,2013-06-14 21:51:00,
2013-06-14 14:52:00,92.5,46.9,29.90,SSW,200,0.0,0.0,21,0.00,SCT,,0.00,WeatherDisplay:10.37,2013-06-14 21:52:00,
2013-06-14 14:53:00,92.5,46.9,29.90,SW,234,0.0,0.0,21,0.00,SCT,,0.00,WeatherDisplay:10.37,2013-06-14 21:53:00,
2013-06-14 14:57:00,92.9,47.2,29.90,ESE,121,0.0,0.0,21,0.00,SCT,,0.00,WeatherDisplay:10.37,2013-06-14 21:57:00,
2013-06-14 14:58:00,93.0,47.3,29.90,ESE,120,0.0,0.0,21,0.00,SCT,,0.00,WeatherDisplay:10.37,2013-06-14 21:58:00,
2013-06-14 14:59:00,93.1,46.1,29.90,ESE,118,0.0,0.0,20,0.00,SCT,,0.00,WeatherDisplay:10.37,2013-06-14 21:59:00,
2013-06-14 15:02:00,93.2,46.2,29.90,SE,129,0.0,0.0,20,0.00,SCT,,0.00,WeatherDisplay:10.37,2013-06-14 22:02:00,
2013-06-14 15:03:00,93.2,46.2,29.90,South,181,0.0,0.0,20,0.00,SCT,,0.00,WeatherDisplay:10.37,2013-06-14 22:03:00,
2013-06-14 15:05:00,93.2,46.2,29.90,SE,142,0.0,0.0,20,0.00,SCT,,0.00,WeatherDisplay:10.37,2013-06-14 22:05:00,
2013-06-14 15:07:00,93.4,45.0,29.90,SSE,155,0.0,0.0,19,0.00,SCT,,0.00,WeatherDisplay:10.37,2013-06-14 22:07:00,
2013-06-14 15:08:00,93.4,45.0,29.90,East,85,0.0,0.0,19,0.00,SCT,,0.00,WeatherDisplay:10.37,2013-06-14 22:08:00,
2013-06-14 15:09:00,93.3,44.9,29.90,SSE,167,0.0,0.0,19,0.00,SCT,,0.00,WeatherDisplay:10.37,2013-06-14 22:09:00,
2013-06-14 15:10:00,93.3,44.9,29.90,SSE,153,0.0,0.0,19,0.00,SCT,,0.00,WeatherDisplay:10.37,2013-06-14 22:10:00,
2013-06-14 15:13:00,93.3,44.9,29.90,East,101,0.0,0.0,19,0.00,SCT,,0.00,WeatherDisplay:10.37,2013-06-14 22:13:00,
2013-06-14 15:14:00,93.3,46.2,29.90,ESE,121,0.0,0.0,20,0.00,SCT,,0.00,WeatherDisplay:10.37,2013-06-14 22:14:00,
2013-06-14 15:15:00,93.4,45.0,29.90,ESE,117,0.0,0.0,19,0.00,SCT,,0.00,WeatherDisplay:10.37,2013-06-14 22:15:00,
2013-06-14 15:17:00,93.3,44.9,29.90,SW,216,0.0,0.0,19,0.00,SCT,,0.00,WeatherDisplay:10.37,2013-06-14 22:17:00,
2013-06-14 15:19:00,93.1,44.7,29.89,SE,129,0.0,0.0,19,0.00,SCT,,0.00,WeatherDisplay:10.37,2013-06-14 22:19:00,
2013-06-14 15:20:00,93.1,44.7,29.89,ENE,67,0.0,0.0,19,0.00,SCT,,0.00,WeatherDisplay:10.37,2013-06-14 22:20:00,
2013-06-14 15:22:00,93.1,44.7,29.89,ENE,68,0.0,0.0,19,0.00,SCT,,0.00,WeatherDisplay:10.37,2013-06-14 22:22:00,
2013-06-14 15:24:00,93.2,46.2,29.89,SE,124,0.0,0.0,20,0.00,SCT,,0.00,WeatherDisplay:10.37,2013-06-14 22:24:00,
2013-06-14 15:25:00,93.2,46.2,29.89,SE,125,0.0,0.0,20,0.00,SCT,,0.00,WeatherDisplay:10.37,2013-06-14 22:25:00,
2013-06-14 15:26:00,93.2,44.8,29.89,NE,50,0.0,0.0,19,0.00,SCT,,0.00,WeatherDisplay:10.37,2013-06-14 22:26:00,
2013-06-14 15:28:00,93.3,44.9,29.89,ENE,73,0.0,0.0,19,0.00,SCT,,0.00,WeatherDisplay:10.37,2013-06-14 22:28:00,
2013-06-14 15:29:00,93.4,45.0,29.89,SSW,192,0.0,0.0,19,0.00,SCT,,0.00,WeatherDisplay:10.37,2013-06-14 22:29:00,
2013-06-14 15:30:00,93.5,45.1,29.89,SSW,192,0.0,0.0,19,0.00,SCT,,0.00,WeatherDisplay:10.37,2013-06-14 22:30:00,
2013-06-14 15:33:00,93.2,44.8,29.89,SE,133,0.0,0.0,19,0.00,SCT,,0.00,WeatherDisplay:10.37,2013-06-14 22:33:00,
2013-06-14 15:34:00,93.2,44.8,29.89,ENE,71,0.0,0.0,19,0.00,SCT,,0.00,WeatherDisplay:10.37,2013-06-14 22:34:00,
2013-06-14 15:36:00,93.3,44.9,29.89,ESE,123,0.0,0.0,19,0.00,SCT,,0.00,WeatherDisplay:10.37,2013-06-14 22:36:00,
2013-06-14 15:38:00,93.4,45.0,29.89,SE,127,0.0,0.0,19,0.00,SCT,,0.00,WeatherDisplay:10.37,2013-06-14 22:38:00,
2013-06-14 15:39:00,93.4,45.0,29.89,East,98,0.0,0.0,19,0.00,SCT,,0.00,WeatherDisplay:10.37,2013-06-14 22:39:00,
2013-06-14 15:40:00,93.4,45.0,29.89,East,100,0.0,0.0,19,0.00,SCT,,0.00,WeatherDisplay:10.37,2013-06-14 22:40:00,
2013-06-14 15:42:00,93.5,45.1,29.89,ESE,108,0.0,0.0,19,0.00,SCT,,0.00,WeatherDisplay:10.37,2013-06-14 22:42:00,
2013-06-14 15:44:00,93.5,45.1,29.89,SE,128,0.0,0.0,19,0.00,SCT,,0.00,WeatherDisplay:10.37,2013-06-14 22:44:00,
2013-06-14 15:45:00,93.5,45.1,29.89,South,169,0.0,0.0,19,0.00,SCT,,0.00,WeatherDisplay:10.37,2013-06-14 22:45:00,
2013-06-14 15:47:00,93.5,45.1,29.89,ESE,119,0.0,0.0,19,0.00,SCT,,0.00,WeatherDisplay:10.37,2013-06-14 22:47:00,
2013-06-14 15:49:00,93.5,45.1,29.89,South,171,0.0,0.0,19,0.00,SCT,,0.00,WeatherDisplay:10.37,2013-06-14 22:49:00,
2013-06-14 15:50:00,93.4,45.0,29.89,NE,45,0.0,0.0,19,0.00,SCT,,0.00,WeatherDisplay:10.37,2013-06-14 22:50:00,
2013-06-14 15:54:00,93.3,44.9,29.89,South,186,0.0,0.0,19,0.00,SCT,,0.00,WeatherDisplay:10.37,2013-06-14 22:54:00,
2013-06-14 15:55:00,93.2,44.8,29.88,ENE,67,0.0,0.0,19,0.00,SCT,,0.00,WeatherDisplay:10.37,2013-06-14 22:55:00,
2013-06-14 15:58:00,93.3,44.9,29.88,East,99,0.0,0.0,19,0.00,SCT,,0.00,WeatherDisplay:10.37,2013-06-14 22:58:00,
2013-06-14 15:59:00,93.2,44.8,29.88,ESE,112,0.0,0.0,19,0.00,SCT,,0.00,WeatherDisplay:10.37,2013-06-14 22:59:00,
2013-06-14 16:00:00,93.2,44.8,29.88,SE,131,0.0,0.0,19,0.00,SCT,,0.00,WeatherDisplay:10.37,2013-06-14 23:00:00,
2013-06-14 16:02:00,93.0,44.6,29.88,East,90,0.0,0.0,19,0.00,SCT,,0.00,WeatherDisplay:10.37,2013-06-14 23:02:00,
2013-06-14 16:03:00,93.0,46.0,29.88,ESE,112,0.0,0.0,20,0.00,SCT,,0.00,WeatherDisplay:10.37,2013-06-14 23:03:00,
2013-06-14 16:04:00,93.0,46.0,29.88,SSE,151,0.0,0.0,20,0.00,SCT,,0.00,WeatherDisplay:10.37,2013-06-14 23:04:00,
2013-06-14 16:06:00,93.1,46.1,29.89,SSW,209,0.0,0.0,20,0.00,SCT,,0.00,WeatherDisplay:10.37,2013-06-14 23:06:00,
2013-06-14 16:08:00,93.1,46.1,29.89,SSE,159,0.0,0.0,20,0.00,SCT,,0.00,WeatherDisplay:10.37,2013-06-14 23:08:00,
2013-06-14 16:09:00,93.1,46.1,29.89,SSE,153,0.0,0.0,20,0.00,SCT,,0.00,WeatherDisplay:10.37,2013-06-14 23:09:00,
2013-06-14 16:10:00,93.1,46.1,29.89,SSE,149,0.0,0.0,20,0.00,SCT,,0.00,WeatherDisplay:10.37,2013-06-14 23:10:00,
2013-06-14 16:11:00,93.0,44.6,29.89,SW,227,0.0,0.0,19,0.00,SCT,,0.00,WeatherDisplay:10.37,2013-06-14 23:11:00,
2013-06-14 16:14:00,92.3,44.1,29.89,South,175,0.0,0.0,19,0.00,SCT,,0.00,WeatherDisplay:10.37,2013-06-14 23:14:00,
2013-06-14 16:15:00,92.4,44.1,29.88,South,169,0.0,0.0,19,0.00,SCT,,0.00,WeatherDisplay:10.37,2013-06-14 23:15:00,
2013-06-14 16:16:00,92.2,44.0,29.88,South,182,0.0,0.0,19,0.00,SCT,,0.00,WeatherDisplay:10.37,2013-06-14 23:16:00,
2013-06-14 16:17:00,92.2,44.0,29.88,South,178,0.0,0.0,19,0.00,SCT,,0.00,WeatherDisplay:10.37,2013-06-14 23:17:00,
2013-06-14 16:19:00,92.2,45.3,29.88,ESE,122,0.0,0.0,20,0.00,SCT,,0.00,WeatherDisplay:10.37,2013-06-14 23:19:00,
2013-06-14 16:20:00,92.2,45.3,29.88,South,172,0.0,0.0,20,0.00,SCT,,0.00,WeatherDisplay:10.37,2013-06-14 23:20:00,
2013-06-14 16:22:00,92.2,44.0,29.88,SSW,204,0.0,0.0,19,0.00,SCT,,0.00,WeatherDisplay:10.37,2013-06-14 23:22:00,
2013-06-14 16:25:00,92.0,45.2,29.88,South,175,0.0,0.0,20,0.00,SCT,,0.00,WeatherDisplay:10.37,2013-06-14 23:25:00,
2013-06-14 16:26:00,91.9,45.1,29.88,SE,129,0.0,0.0,20,0.00,SCT,,0.00,WeatherDisplay:10.37,2013-06-14 23:26:00,
2013-06-14 16:27:00,91.8,45.0,29.88,SSW,197,0.0,0.0,20,0.00,SCT,,0.00,WeatherDisplay:10.37,2013-06-14 23:27:00,
2013-06-14 16:30:00,91.6,43.5,29.88,ESE,117,0.0,0.0,19,0.00,SCT,,0.00,WeatherDisplay:10.37,2013-06-14 23:30:00,
2013-06-14 16:31:00,91.6,43.5,29.88,SE,129,0.0,0.0,19,0.00,SCT,,0.00,WeatherDisplay:10.37,2013-06-14 23:31:00,
2013-06-14 16:32:00,91.4,44.7,29.88,SSE,153,0.0,0.0,20,0.00,SCT,,0.00,WeatherDisplay:10.37,2013-06-14 23:32:00,
2013-06-14 16:34:00,91.4,44.7,29.88,SE,124,0.0,0.0,20,0.00,SCT,,0.00,WeatherDisplay:10.37,2013-06-14 23:34:00,
2013-06-14 16:35:00,91.4,44.7,29.88,SSW,199,0.0,0.0,20,0.00,SCT,,0.00,WeatherDisplay:10.37,2013-06-14 23:35:00,
2013-06-14 16:36:00,91.3,44.6,29.88,ESE,116,0.0,0.0,20,0.00,SCT,,0.00,WeatherDisplay:10.37,2013-06-14 23:36:00,
2013-06-14 16:38:00,91.3,45.9,29.88,SSW,194,0.0,0.0,21,0.00,SCT,,0.00,WeatherDisplay:10.37,2013-06-14 23:38:00,
2013-06-14 16:39:00,91.4,44.7,29.88,SSW,194,0.0,0.0,20,0.00,SCT,,0.00,WeatherDisplay:10.37,2013-06-14 23:39:00,
2013-06-14 16:41:00,91.6,44.9,29.88,SE,137,0.0,0.0,20,0.00,SCT,,0.00,WeatherDisplay:10.37,2013-06-14 23:41:00,
2013-06-14 16:42:00,91.6,44.9,29.88,SSE,152,0.0,0.0,20,0.00,SCT,,0.00,WeatherDisplay:10.37,2013-06-14 23:42:00,
2013-06-14 16:43:00,91.5,44.8,29.87,SSE,152,0.0,0.0,20,0.00,SCT,,0.00,WeatherDisplay:10.37,2013-06-14 23:43:00,
2013-06-14 16:45:00,91.3,44.6,29.87,SSE,153,0.0,0.0,20,0.00,SCT,,0.00,WeatherDisplay:10.37,2013-06-14 23:45:00,
2013-06-14 16:46:00,91.2,43.2,29.88,SSE,148,0.0,0.0,19,0.00,SCT,,0.00,WeatherDisplay:10.37,2013-06-14 23:46:00,
2013-06-14 16:47:00,91.0,43.0,29.88,SE,131,0.0,0.0,19,0.00,SCT,,0.00,WeatherDisplay:10.37,2013-06-14 23:47:00,
2013-06-14 16:49:00,90.9,42.9,29.88,ESE,119,0.0,0.0,19,0.00,SCT,,0.00,WeatherDisplay:10.37,2013-06-14 23:49:00,
2013-06-14 16:50:00,90.7,42.8,29.87,SE,137,0.0,0.0,19,0.00,SCT,,0.00,WeatherDisplay:10.37,2013-06-14 23:50:00,
2013-06-14 16:51:00,90.7,42.8,29.87,SE,135,0.0,0.0,19,0.00,SCT,,0.00,WeatherDisplay:10.37,2013-06-14 23:51:00,
2013-06-14 16:53:00,90.9,44.3,29.87,SSW,193,0.0,0.0,20,0.00,SCT,,0.00,WeatherDisplay:10.37,2013-06-14 23:53:00,
2013-06-14 16:54:00,90.9,42.9,29.87,ESE,118,0.0,0.0,19,0.00,SCT,,0.00,WeatherDisplay:10.37,2013-06-14 23:54:00,
2013-06-14 16:57:00,90.9,44.3,29.87,ENE,61,0.0,0.0,20,0.00,SCT,,0.00,WeatherDisplay:10.37,2013-06-14 23:57:00,
2013-06-14 16:58:00,90.9,44.3,29.87,SE,134,0.0,0.0,20,0.00,SCT,,0.00,WeatherDisplay:10.37,2013-06-14 23:58:00,
2013-06-14 16:59:00,91.0,44.4,29.87,SE,131,0.0,0.0,20,0.00,SCT,,0.00,WeatherDisplay:10.37,2013-06-14 23:59:00,
2013-06-14 17:00:00,91.0,43.0,29.87,SE,140,0.0,0.0,19,0.00,SCT,,0.00,WeatherDisplay:10.37,2013-06-15 00:00:00,
2013-06-14 17:02:00,91.0,43.0,29.87,East,101,0.0,0.0,19,0.00,SCT,,0.00,WeatherDisplay:10.37,2013-06-15 00:02:00,
2013-06-14 17:04:00,91.1,43.1,29.87,SE,135,0.0,0.0,19,0.00,SCT,,0.00,WeatherDisplay:10.37,2013-06-15 00:04:00,
2013-06-14 17:05:00,91.2,43.2,29.87,ESE,115,0.0,0.0,19,0.00,SCT,,0.00,WeatherDisplay:10.37,2013-06-15 00:05:00,
2013-06-14 17:06:00,91.2,43.2,29.87,ESE,115,0.0,0.0,19,0.00,SCT,,0.00,WeatherDisplay:10.37,2013-06-15 00:06:00,
2013-06-14 17:07:00,91.2,43.2,29.87,SW,216,0.0,0.0,19,0.00,SCT,,0.00,WeatherDisplay:10.37,2013-06-15 00:07:00,
2013-06-14 17:10:00,90.9,42.9,29.87,SE,124,0.0,0.0,19,0.00,SCT,,0.00,WeatherDisplay:10.37,2013-06-15 00:10:00,
2013-06-14 17:11:00,90.7,42.8,29.87,ENE,67,0.0,0.0,19,0.00,SCT,,0.00,WeatherDisplay:10.37,2013-06-15 00:11:00,
2013-06-14 17:13:00,90.5,42.6,29.87,SE,130,0.0,0.0,19,0.00,SCT,,0.00,WeatherDisplay:10.37,2013-06-15 00:13:00,
2013-06-14 17:14:00,90.4,42.5,29.87,ESE,114,0.0,0.0,19,0.00,SCT,,0.00,WeatherDisplay:10.37,2013-06-15 00:14:00,
2013-06-14 17:15:00,90.2,42.4,29.87,SE,136,0.0,0.0,19,0.00,SCT,,0.00,WeatherDisplay:10.37,2013-06-15 00:15:00,
2013-06-14 17:16:00,90.1,42.3,29.87,SE,136,0.0,0.0,19,0.00,SCT,,0.00,WeatherDisplay:10.37,2013-06-15 00:16:00,
2013-06-14 17:17:00,90.0,42.2,29.87,South,171,0.0,0.0,19,0.00,SCT,,0.00,WeatherDisplay:10.37,2013-06-15 00:17:00,
2013-06-14 17:18:00,89.9,42.1,29.87,ESE,117,0.0,0.0,19,0.00,SCT,,0.00,WeatherDisplay:10.37,2013-06-15 00:18:00,
2013-06-14 17:19:00,89.9,43.5,29.87,WSW,257,0.0,0.0,20,0.00,SCT,,0.00,WeatherDisplay:10.37,2013-06-15 00:19:00,
2013-06-14 17:21:00,89.7,42.0,29.87,SSW,194,0.0,0.0,19,0.00,SCT,,0.00,WeatherDisplay:10.37,2013-06-15 00:21:00,
2013-06-14 17:22:00,89.7,42.0,29.87,South,175,0.0,0.0,19,0.00,SCT,,0.00,WeatherDisplay:10.37,2013-06-15 00:22:00,
2013-06-14 17:23:00,89.4,43.0,29.87,SSE,156,0.0,0.0,20,0.00,SCT,,0.00,WeatherDisplay:10.37,2013-06-15 00:23:00,
2013-06-14 17:25:00,89.2,41.5,29.87,SSW,208,0.0,0.0,19,0.00,SCT,,0.00,WeatherDisplay:10.37,2013-06-15 00:25:00,
2013-06-14 17:26:00,88.9,41.3,29.87,South,171,0.0,0.0,19,0.00,SCT,,0.00,WeatherDisplay:10.37,2013-06-15 00:26:00,
2013-06-14 17:27:00,88.8,42.6,29.87,SE,125,0.0,0.0,20,0.00,SCT,,0.00,WeatherDisplay:10.37,2013-06-15 00:27:00,
2013-06-14 17:28:00,88.8,43.8,29.87,SW,223,0.0,0.0,21,0.00,SCT,,0.00,WeatherDisplay:10.37,2013-06-15 00:28:00,
2013-06-14 17:31:00,88.9,42.6,29.87,SE,144,0.0,0.0,20,0.00,SCT,,0.00,WeatherDisplay:10.37,2013-06-15 00:31:00,
2013-06-14 17:32:00,88.9,43.9,29.87,South,187,0.0,0.0,21,0.00,SCT,,0.00,WeatherDisplay:10.37,2013-06-15 00:32:00,
2013-06-14 17:33:00,88.7,43.7,29.87,SSW,204,0.0,0.0,21,0.00,SCT,,0.00,WeatherDisplay:10.37,2013-06-15 00:33:00,
2013-06-14 17:34:00,88.6,43.7,29.87,SSW,209,0.0,0.0,21,0.00,SCT,,0.00,WeatherDisplay:10.37,2013-06-15 00:34:00,
2013-06-14 17:37:00,88.7,43.7,29.87,South,177,0.0,0.0,21,0.00,SCT,,0.00,WeatherDisplay:10.37,2013-06-15 00:37:00,
2013-06-14 17:38:00,88.7,43.7,29.87,South,179,0.0,0.0,21,0.00,SCT,,0.00,WeatherDisplay:10.37,2013-06-15 00:38:00,
2013-06-14 17:39:00,88.6,43.7,29.87,SSW,205,0.0,0.0,21,0.00,SCT,,0.00,WeatherDisplay:10.37,2013-06-15 00:39:00,
2013-06-14 17:40:00,88.6,43.7,29.87,SW,228,0.0,0.0,21,0.00,SCT,,0.00,WeatherDisplay:10.37,2013-06-15 00:40:00,
2013-06-14 17:42:00,88.4,43.5,29.87,SSE,161,0.0,0.0,21,0.00,SCT,,0.00,WeatherDisplay:10.37,2013-06-15 00:42:00,
2013-06-14 17:44:00,88.5,43.6,29.87,SSE,159,0.0,0.0,21,0.00,SCT,,0.00,WeatherDisplay:10.37,2013-06-15 00:44:00,
2013-06-14 17:45:00,88.5,43.6,29.87,SSE,148,0.0,0.0,21,0.00,SCT,,0.00,WeatherDisplay:10.37,2013-06-15 00:45:00,
2013-06-14 17:46:00,88.5,43.6,29.87,SE,130,0.0,0.0,21,0.00,SCT,,0.00,WeatherDisplay:10.37,2013-06-15 00:46:00,
2013-06-14 17:47:00,88.5,43.6,29.87,SSW,199,0.0,0.0,21,0.00,SCT,,0.00,WeatherDisplay:10.37,2013-06-15 00:47:00,
2013-06-14 17:50:00,88.5,43.6,29.86,SE,137,0.0,0.0,21,0.00,SCT,,0.00,WeatherDisplay:10.37,2013-06-15 00:50:00,
2013-06-14 17:51:00,88.4,43.5,29.86,SSE,157,0.0,0.0,21,0.00,SCT,,0.00,WeatherDisplay:10.37,2013-06-15 00:51:00,
2013-06-14 17:52:00,88.4,44.7,29.86,ESE,120,0.0,0.0,22,0.00,SCT,,0.00,WeatherDisplay:10.37,2013-06-15 00:52:00,
2013-06-14 17:56:00,88.5,44.8,29.86,SE,127,0.0,0.0,22,0.00,SCT,,0.00,WeatherDisplay:10.37,2013-06-15 00:56:00,
2013-06-14 17:57:00,88.5,44.8,29.86,ENE,61,0.0,0.0,22,0.00,SCT,,0.00,WeatherDisplay:10.37,2013-06-15 00:57:00,
2013-06-14 18:01:00,88.3,44.6,29.86,SE,135,0.0,0.0,22,0.00,SCT,,0.00,WeatherDisplay:10.37,2013-06-15 01:01:00,
2013-06-14 18:02:00,88.2,44.5,29.86,SE,144,0.0,0.0,22,0.00,SCT,,0.00,WeatherDisplay:10.37,2013-06-15 01:02:00,
2013-06-14 18:03:00,88.2,44.5,29.86,ENE,63,0.0,0.0,22,0.00,SCT,,0.00,WeatherDisplay:10.37,2013-06-15 01:03:00,
2013-06-14 18:07:00,88.0,44.4,29.86,ESE,113,0.0,0.0,22,0.00,SCT,,0.00,WeatherDisplay:10.37,2013-06-15 01:07:00,
2013-06-14 18:09:00,87.8,44.2,29.86,SE,128,0.0,0.0,22,0.00,SCT,,0.00,WeatherDisplay:10.37,2013-06-15 01:09:00,
2013-06-14 18:12:00,87.5,44.0,29.86,SE,133,0.0,0.0,22,0.00,SCT,,0.00,WeatherDisplay:10.37,2013-06-15 01:12:00,
2013-06-14 18:13:00,87.4,45.1,29.86,ESE,113,0.0,0.0,23,0.00,SCT,,0.00,WeatherDisplay:10.37,2013-06-15 01:13:00,
2013-06-14 18:14:00,87.4,45.1,29.86,SE,137,0.0,0.0,23,0.00,SCT,,0.00,WeatherDisplay:10.37,2013-06-15 01:14:00,
2013-06-14 18:18:00,87.0,43.6,29.86,SSE,156,0.0,0.0,22,0.00,SCT,,0.00,WeatherDisplay:10.37,2013-06-15 01:18:00,
2013-06-14 18:19:00,86.8,43.4,29.86,SSE,148,0.0,0.0,22,0.00,SCT,,0.00,WeatherDisplay:10.37,2013-06-15 01:19:00,
2013-06-14 18:23:00,86.5,44.3,29.86,ESE,119,0.0,0.0,23,0.00,SCT,,0.00,WeatherDisplay:10.37,2013-06-15 01:23:00,
2013-06-14 18:24:00,86.5,44.3,29.86,NE,36,0.0,0.0,23,0.00,SCT,,0.00,WeatherDisplay:10.37,2013-06-15 01:24:00,
2013-06-14 18:25:00,86.4,44.2,29.86,South,189,0.0,0.0,23,0.00,SCT,,0.00,WeatherDisplay:10.37,2013-06-15 01:25:00,
2013-06-14 18:28:00,86.3,44.1,29.86,East,94,0.0,0.0,23,0.00,SCT,,0.00,WeatherDisplay:10.37,2013-06-15 01:28:00,
2013-06-14 18:29:00,86.3,44.1,29.86,East,92,0.0,0.0,23,0.00,SCT,,0.00,WeatherDisplay:10.37,2013-06-15 01:29:00,
2013-06-14 18:30:00,86.2,44.0,29.86,ESE,110,0.0,0.0,23,0.00,SCT,,0.00,WeatherDisplay:10.37,2013-06-15 01:30:00,
2013-06-14 18:33:00,85.9,43.8,29.86,ESE,114,0.0,0.0,23,0.00,SCT,,0.00,WeatherDisplay:10.37,2013-06-15 01:33:00,
2013-06-14 18:34:00,85.8,43.7,29.86,ESE,121,0.0,0.0,23,0.00,SCT,,0.00,WeatherDisplay:10.37,2013-06-15 01:34:00,
2013-06-14 18:36:00,85.8,43.7,29.86,SW,232,0.0,0.0,23,0.00,SCT,,0.00,WeatherDisplay:10.37,2013-06-15 01:36:00,
2013-06-14 18:37:00,85.7,43.6,29.86,SSE,150,0.0,0.0,23,0.00,SCT,,0.00,WeatherDisplay:10.37,2013-06-15 01:37:00,
2013-06-14 18:40:00,85.4,44.5,29.86,East,93,0.0,0.0,24,0.00,SCT,,0.00,WeatherDisplay:10.37,2013-06-15 01:40:00,
2013-06-14 18:41:00,85.2,43.2,29.86,SE,138,0.0,0.0,23,0.00,SCT,,0.00,WeatherDisplay:10.37,2013-06-15 01:41:00,
2013-06-14 18:42:00,85.2,43.2,29.86,SE,136,0.0,0.0,23,0.00,SCT,,0.00,WeatherDisplay:10.37,2013-06-15 01:42:00,
2013-06-14 18:45:00,84.9,44.1,29.86,SE,146,0.0,0.0,24,0.00,SCT,,0.00,WeatherDisplay:10.37,2013-06-15 01:45:00,
2013-06-14 18:46:00,84.9,44.1,29.86,SSW,206,0.0,0.0,24,0.00,SCT,,0.00,WeatherDisplay:10.37,2013-06-15 01:46:00,
2013-06-14 18:47:00,84.9,44.1,29.86,SSW,206,0.0,0.0,24,0.00,SCT,,0.00,WeatherDisplay:10.37,2013-06-15 01:47:00,
2013-06-14 18:48:00,85.0,44.2,29.86,SSW,213,0.0,0.0,24,0.00,SCT,,0.00,WeatherDisplay:10.37,2013-06-15 01:48:00,
2013-06-14 18:50:00,84.9,43.0,29.86,SSE,156,0.0,0.0,23,0.00,SCT,,0.00,WeatherDisplay:10.37,2013-06-15 01:50:00,
2013-06-14 18:51:00,84.8,44.0,29.86,ESE,120,0.0,0.0,24,0.00,SCT,,0.00,WeatherDisplay:10.37,2013-06-15 01:51:00,
2013-06-14 18:52:00,84.7,42.8,29.86,SE,125,0.0,0.0,23,0.00,SCT,,0.00,WeatherDisplay:10.37,2013-06-15 01:52:00,
2013-06-14 18:53:00,84.7,43.9,29.86,East,85,0.0,0.0,24,0.00,SCT,,0.00,WeatherDisplay:10.37,2013-06-15 01:53:00,
2013-06-14 18:54:00,84.6,42.7,29.86,SE,145,0.0,0.0,23,0.00,SCT,,0.00,WeatherDisplay:10.37,2013-06-15 01:54:00,
2013-06-14 18:56:00,84.6,42.7,29.86,ESE,116,0.0,0.0,23,0.00,SCT,,0.00,WeatherDisplay:10.37,2013-06-15 01:56:00,
2013-06-14 18:57:00,84.5,42.6,29.86,SSE,148,0.0,0.0,23,0.00,SCT,,0.00,WeatherDisplay:10.37,2013-06-15 01:57:00,
2013-06-14 18:59:00,84.3,43.6,29.86,SSE,147,0.0,0.0,24,0.00,SCT,,0.00,WeatherDisplay:10.37,2013-06-15 01:59:00,
2013-06-14 19:01:00,84.1,43.4,29.86,East,92,0.0,0.0,24,0.00,SCT,,0.00,WeatherDisplay:10.37,2013-06-15 02:01:00,
2013-06-14 19:02:00,84.0,43.3,29.86,SSE,148,0.0,0.0,24,0.00,SCT,,0.00,WeatherDisplay:10.37,2013-06-15 02:02:00,
2013-06-14 19:04:00,83.9,43.2,29.86,ESE,112,0.0,0.0,24,0.00,SCT,,0.00,WeatherDisplay:10.37,2013-06-15 02:04:00,
2013-06-14 19:06:00,83.7,43.1,29.86,SSE,159,0.0,0.0,24,0.00,SCT,,0.00,WeatherDisplay:10.37,2013-06-15 02:06:00,
2013-06-14 19:07:00,83.6,43.0,29.86,SE,125,0.0,0.0,24,0.00,SCT,,0.00,WeatherDisplay:10.37,2013-06-15 02:07:00,
2013-06-14 19:09:00,83.6,43.0,29.86,SSE,148,0.0,0.0,24,0.00,SCT,,0.00,WeatherDisplay:10.37,2013-06-15 02:09:00,
2013-06-14 19:10:00,83.5,42.9,29.86,SSE,147,0.0,0.0,24,0.00,SCT,,0.00,WeatherDisplay:10.37,2013-06-15 02:10:00,
2013-06-14 19:11:00,83.4,42.8,29.86,SSE,156,0.0,0.0,24,0.00,SCT,,0.00,WeatherDisplay:10.37,2013-06-15 02:11:00,
2013-06-14 19:12:00,83.3,42.7,29.86,ESE,108,0.0,0.0,24,0.00,SCT,,0.00,WeatherDisplay:10.37,2013-06-15 02:12:00,
2013-06-14 19:14:00,83.2,42.6,29.86,SE,137,0.0,0.0,24,0.00,SCT,,0.00,WeatherDisplay:10.37,2013-06-15 02:14:00,
2013-06-14 19:16:00,83.1,42.6,29.86,East,96,0.0,0.0,24,0.00,SCT,,0.00,WeatherDisplay:10.37,2013-06-15 02:16:00,
2013-06-14 19:17:00,83.1,42.6,29.86,ESE,115,0.0,0.0,24,0.00,SCT,,0.00,WeatherDisplay:10.37,2013-06-15 02:17:00,
2013-06-14 19:18:00,83.1,43.6,29.86,SE,142,0.0,0.0,25,0.00,SCT,,0.00,WeatherDisplay:10.37,2013-06-15 02:18:00,
2013-06-14 19:19:00,82.9,43.5,29.87,SSE,156,0.0,0.0,25,0.00,SCT,,0.00,WeatherDisplay:10.37,2013-06-15 02:19:00,
2013-06-14 19:21:00,82.8,43.4,29.86,East,91,0.0,0.0,25,0.00,SCT,,0.00,WeatherDisplay:10.37,2013-06-15 02:21:00,
2013-06-14 19:22:00,82.8,43.4,29.87,East,100,0.0,0.0,25,0.00,SCT,,0.00,WeatherDisplay:10.37,2013-06-15 02:22:00,
2013-06-14 19:23:00,82.8,43.4,29.86,SE,139,0.0,0.0,25,0.00,SCT,,0.00,WeatherDisplay:10.37,2013-06-15 02:23:00,
2013-06-14 19:24:00,82.6,43.2,29.86,SE,146,0.0,0.0,25,0.00,SCT,,0.00,WeatherDisplay:10.37,2013-06-15 02:24:00,
2013-06-14 19:26:00,82.5,43.1,29.87,WNW,296,0.0,0.0,25,0.00,SCT,,0.00,WeatherDisplay:10.37,2013-06-15 02:26:00,
2013-06-14 19:27:00,82.4,43.0,29.87,SE,134,0.0,0.0,25,0.00,SCT,,0.00,WeatherDisplay:10.37,2013-06-15 02:27:00,
2013-06-14 19:28:00,82.3,43.0,29.86,ENE,77,0.0,0.0,25,0.00,SCT,,0.00,WeatherDisplay:10.37,2013-06-15 02:28:00,
2013-06-14 19:29:00,82.2,43.9,29.86,SSE,149,0.0,0.0,26,0.00,SCT,,0.00,WeatherDisplay:10.37,2013-06-15 02:29:00,
2013-06-14 19:31:00,82.0,43.7,29.86,ESE,114,0.0,0.0,26,0.00,SCT,,0.00,WeatherDisplay:10.37,2013-06-15 02:31:00,
2013-06-14 19:33:00,81.9,43.6,29.86,SE,128,0.0,0.0,26,0.00,SCT,,0.00,WeatherDisplay:10.37,2013-06-15 02:33:00,
2013-06-14 19:34:00,81.9,43.6,29.87,ESE,107,0.0,0.0,26,0.00,SCT,,0.00,WeatherDisplay:10.37,2013-06-15 02:34:00,
2013-06-14 19:36:00,81.7,44.5,29.87,SE,143,0.0,0.0,27,0.00,SCT,,0.00,WeatherDisplay:10.37,2013-06-15 02:36:00,
2013-06-14 19:37:00,81.7,44.5,29.86,SSE,161,0.0,0.0,27,0.00,SCT,,0.00,WeatherDisplay:10.37,2013-06-15 02:37:00,
2013-06-14 19:38:00,81.5,44.3,29.86,SE,138,0.0,0.0,27,0.00,SCT,,0.00,WeatherDisplay:10.37,2013-06-15 02:38:00,
2013-06-14 19:39:00,81.5,44.3,29.87,SSW,207,0.0,0.0,27,0.00,SCT,,0.00,WeatherDisplay:10.37,2013-06-15 02:39:00,
2013-06-14 19:40:00,81.5,44.3,29.86,SE,138,0.0,0.0,27,0.00,SCT,,0.00,WeatherDisplay:10.37,2013-06-15 02:40:00,
2013-06-14 19:42:00,81.4,44.2,29.87,SSE,165,0.0,0.0,27,0.00,SCT,,0.00,WeatherDisplay:10.37,2013-06-15 02:42:00,
2013-06-14 19:43:00,81.3,44.1,29.87,ESE,123,0.0,0.0,27,0.00,SCT,,0.00,WeatherDisplay:10.37,2013-06-15 02:43:00,
2013-06-14 19:44:00,81.3,44.1,29.87,SE,140,0.0,0.0,27,0.00,SCT,,0.00,WeatherDisplay:10.37,2013-06-15 02:44:00,
2013-06-14 19:46:00,81.1,43.9,29.87,ENE,78,0.0,0.0,27,0.00,SCT,,0.00,WeatherDisplay:10.37,2013-06-15 02:46:00,
2013-06-14 19:47:00,81.0,43.9,29.87,SE,145,0.0,0.0,27,0.00,SCT,,0.00,WeatherDisplay:10.37,2013-06-15 02:47:00,
2013-06-14 19:49:00,80.8,43.7,29.86,SE,127,0.0,0.0,27,0.00,SCT,,0.00,WeatherDisplay:10.37,2013-06-15 02:49:00,
2013-06-14 19:50:00,80.6,43.5,29.86,ESE,113,0.0,0.0,27,0.00,SCT,,0.00,WeatherDisplay:10.37,2013-06-15 02:50:00,
2013-06-14 19:51:00,80.5,44.4,29.87,SSE,155,0.0,0.0,28,0.00,SCT,,0.00,WeatherDisplay:10.37,2013-06-15 02:51:00,
2013-06-14 19:52:00,80.4,44.3,29.87,East,93,0.0,0.0,28,0.00,SCT,,0.00,WeatherDisplay:10.37,2013-06-15 02:52:00,
2013-06-14 19:55:00,80.2,44.2,29.87,SE,132,0.0,0.0,28,0.00,SCT,,0.00,WeatherDisplay:10.37,2013-06-15 02:55:00,
2013-06-14 19:56:00,80.2,44.1,29.87,South,191,0.0,0.0,28,0.00,SCT,,0.00,WeatherDisplay:10.37,2013-06-15 02:56:00,
2013-06-14 19:58:00,80.1,45.0,29.87,SSW,202,0.0,0.0,29,0.00,SCT,,0.00,WeatherDisplay:10.37,2013-06-15 02:58:00,
2013-06-14 19:59:00,79.9,44.8,29.87,SSW,207,0.0,0.0,29,0.00,SCT,,0.00,WeatherDisplay:10.37,2013-06-15 02:59:00,
2013-06-14 20:01:00,79.5,45.3,29.87,SW,220,0.0,0.0,30,0.00,SCT,,0.00,WeatherDisplay:10.37,2013-06-15 03:01:00,
2013-06-14 20:02:00,79.4,45.3,29.87,SW,234,0.0,0.0,30,0.00,SCT,,0.00,WeatherDisplay:10.37,2013-06-15 03:02:00,
2013-06-14 20:03:00,79.4,45.3,29.87,SW,234,0.0,0.0,30,0.00,SCT,,0.00,WeatherDisplay:10.37,2013-06-15 03:03:00,
2013-06-14 20:05:00,79.1,45.9,29.87,SW,235,0.0,0.0,31,0.00,SCT,,0.00,WeatherDisplay:10.37,2013-06-15 03:05:00,
2013-06-14 20:07:00,78.9,45.7,29.87,SW,235,0.0,0.0,31,0.00,SCT,,0.00,WeatherDisplay:10.37,2013-06-15 03:07:00,
2013-06-14 20:08:00,78.5,46.2,29.87,SW,224,0.0,0.0,32,0.00,SCT,,0.00,WeatherDisplay:10.37,2013-06-15 03:08:00,
2013-06-14 20:11:00,78.3,46.0,29.87,SW,225,0.0,0.0,32,0.00,SCT,,0.00,WeatherDisplay:10.37,2013-06-15 03:11:00,
2013-06-14 20:12:00,78.3,46.0,29.87,SW,225,0.0,0.0,32,0.00,SCT,,0.00,WeatherDisplay:10.37,2013-06-15 03:12:00,
2013-06-14 20:13:00,78.3,46.0,29.87,SW,225,0.0,0.0,32,0.00,SCT,,0.00,WeatherDisplay:10.37,2013-06-15 03:13:00,
2013-06-14 20:14:00,78.3,46.8,29.87,SSW,211,0.0,0.0,33,0.00,SCT,,0.00,WeatherDisplay:10.37,2013-06-15 03:14:00,
2013-06-14 20:17:00,78.4,46.9,29.87,SSW,211,0.0,0.0,33,0.00,SCT,,0.00,WeatherDisplay:10.37,2013-06-15 03:17:00,
2013-06-14 20:18:00,78.5,47.0,29.87,SSW,211,0.0,0.0,33,0.00,SCT,,0.00,WeatherDisplay:10.37,2013-06-15 03:18:00,
2013-06-14 20:19:00,78.5,47.0,29.87,SSW,211,0.0,0.0,33,0.00,SCT,,0.00,WeatherDisplay:10.37,2013-06-15 03:19:00,
2013-06-14 20:20:00,78.6,47.1,29.87,SSW,211,0.0,0.0,33,0.00,SCT,,0.00,WeatherDisplay:10.37,2013-06-15 03:20:00,
2013-06-14 20:23:00,78.5,47.0,29.87,SSW,211,0.0,0.0,33,0.00,SCT,,0.00,WeatherDisplay:10.37,2013-06-15 03:23:00,
2013-06-14 20:24:00,78.5,47.0,29.87,SSW,211,0.0,0.0,33,0.00,SCT,,0.00,WeatherDisplay:10.37,2013-06-15 03:24:00,
2013-06-14 20:25:00,78.4,46.9,29.87,SSW,211,0.0,0.0,33,0.00,SCT,,0.00,WeatherDisplay:10.37,2013-06-15 03:25:00,
2013-06-14 20:28:00,78.3,46.8,29.87,SSW,211,0.0,0.0,33,0.00,SCT,,0.00,WeatherDisplay:10.37,2013-06-15 03:28:00,
2013-06-14 20:29:00,78.2,46.7,29.87,SSW,211,0.0,0.0,33,0.00,SCT,,0.00,WeatherDisplay:10.37,2013-06-15 03:29:00,
2013-06-14 20:30:00,78.2,46.7,29.87,SSW,211,0.0,0.0,33,0.00,SCT,,0.00,WeatherDisplay:10.37,2013-06-15 03:30:00,
2013-06-14 20:34:00,77.6,46.2,29.87,SSW,211,0.0,0.0,33,0.00,SCT,,0.00,WeatherDisplay:10.37,2013-06-15 03:34:00,
2013-06-14 20:35:00,77.5,46.1,29.87,SSW,211,0.0,0.0,33,0.00,SCT,,0.00,WeatherDisplay:10.37,2013-06-15 03:35:00,
2013-06-14 20:36:00,77.4,46.0,29.87,SSW,210,0.0,0.0,33,0.00,SCT,,0.00,WeatherDisplay:10.37,2013-06-15 03:36:00,
2013-06-14 20:40:00,77.3,46.7,29.87,SSW,202,0.0,0.0,34,0.00,SCT,,0.00,WeatherDisplay:10.37,2013-06-15 03:40:00,
2013-06-14 20:41:00,77.2,46.7,29.87,SSW,202,0.0,0.0,34,0.00,SCT,,0.00,WeatherDisplay:10.37,2013-06-15 03:41:00,
2013-06-14 20:42:00,77.0,46.5,29.87,SSW,202,0.0,0.0,34,0.00,SCT,,0.00,WeatherDisplay:10.37,2013-06-15 03:42:00,
2013-06-14 20:45:00,76.5,46.8,29.87,SSW,202,0.0,0.0,35,0.00,SCT,,0.00,WeatherDisplay:10.37,2013-06-15 03:45:00,
2013-06-14 20:46:00,76.5,46.8,29.87,SSW,202,0.0,0.0,35,0.00,SCT,,0.00,WeatherDisplay:10.37,2013-06-15 03:46:00,
2013-06-14 20:47:00,76.5,47.6,29.87,SSW,202,0.0,0.0,36,0.00,SCT,,0.00,WeatherDisplay:10.37,2013-06-15 03:47:00,
2013-06-14 20:49:00,76.3,47.4,29.87,SSW,202,0.0,0.0,36,0.00,SCT,,0.00,WeatherDisplay:10.37,2013-06-15 03:49:00,
2013-06-14 20:50:00,76.2,47.3,29.87,SSW,202,0.0,0.0,36,0.00,SCT,,0.00,WeatherDisplay:10.37,2013-06-15 03:50:00,
2013-06-14 20:52:00,76.1,47.2,29.87,SSW,202,0.0,0.0,36,0.00,SCT,,0.00,WeatherDisplay:10.37,2013-06-15 03:52:00,
2013-06-14 20:53:00,76.0,47.1,29.87,SSW,202,0.0,0.0,36,0.00,SCT,,0.00,WeatherDisplay:10.37,2013-06-15 03:53:00,
2013-06-14 20:56:00,76.0,47.1,29.87,SSW,202,0.0,0.0,36,0.00,SCT,,0.00,WeatherDisplay:10.37,2013-06-15 03:56:00,
2013-06-14 20:57:00,75.8,46.9,29.87,SSW,202,0.0,0.0,36,0.00,SCT,,0.00,WeatherDisplay:10.37,2013-06-15 03:57:00,
2013-06-14 20:58:00,75.7,46.8,29.87,SSW,202,0.0,0.0,36,0.00,SCT,,0.00,WeatherDisplay:10.37,2013-06-15 03:58:00,
2013-06-14 21:01:00,75.5,47.4,29.87,SSW,202,0.0,0.0,37,0.00,SCT,,0.00,WeatherDisplay:10.37,2013-06-15 04:01:00,
2013-06-14 21:03:00,75.4,47.3,29.87,SSW,196,0.0,0.0,37,0.00,SCT,,0.00,WeatherDisplay:10.37,2013-06-15 04:03:00,
2013-06-14 21:06:00,75.3,47.2,29.87,SSW,195,0.0,0.0,37,0.00,SCT,,0.00,WeatherDisplay:10.37,2013-06-15 04:06:00,
2013-06-14 21:07:00,75.1,47.0,29.87,SSW,203,0.0,0.0,37,0.00,SCT,,0.00,WeatherDisplay:10.37,2013-06-15 04:07:00,
2013-06-14 21:08:00,74.9,46.9,29.87,SSW,203,0.0,0.0,37,0.00,SCT,,0.00,WeatherDisplay:10.37,2013-06-15 04:08:00,
2013-06-14 21:09:00,74.9,46.9,29.87,SSW,203,0.0,0.0,37,0.00,SCT,,0.00,WeatherDisplay:10.37,2013-06-15 04:09:00,
2013-06-14 21:12:00,74.4,47.1,29.87,SSW,203,0.0,0.0,38,0.00,SCT,,0.00,WeatherDisplay:10.37,2013-06-15 04:12:00,
2013-06-14 21:13:00,74.3,47.0,29.87,SSW,203,0.0,0.0,38,0.00,SCT,,0.00,WeatherDisplay:10.37,2013-06-15 04:13:00,
2013-06-14 21:14:00,74.3,47.0,29.87,SSW,203,0.0,0.0,38,0.00,SCT,,0.00,WeatherDisplay:10.37,2013-06-15 04:14:00,
2013-06-14 21:18:00,73.9,47.4,29.87,SSW,203,0.0,0.0,39,0.00,SCT,,0.00,WeatherDisplay:10.37,2013-06-15 04:18:00,
2013-06-14 21:19:00,73.8,47.3,29.87,SSW,195,0.0,0.0,39,0.00,SCT,,0.00,WeatherDisplay:10.37,2013-06-15 04:19:00,
2013-06-14 21:20:00,73.7,47.2,29.87,SSW,195,0.0,0.0,39,0.00,SCT,,0.00,WeatherDisplay:10.37,2013-06-15 04:20:00,
2013-06-14 21:23:00,73.6,47.1,29.87,SSW,195,0.0,0.0,39,0.00,SCT,,0.00,WeatherDisplay:10.37,2013-06-15 04:23:00,
2013-06-14 21:24:00,73.6,47.8,29.87,SSW,195,0.0,0.0,40,0.00,SCT,,0.00,WeatherDisplay:10.37,2013-06-15 04:24:00,
2013-06-14 21:25:00,73.5,47.7,29.87,SSW,195,0.0,0.0,40,0.00,SCT,,0.00,WeatherDisplay:10.37,2013-06-15 04:25:00,
2013-06-14 21:27:00,73.4,47.6,29.87,South,173,0.0,0.0,40,0.00,SCT,,0.00,WeatherDisplay:10.37,2013-06-15 04:27:00,
2013-06-14 21:29:00,73.1,47.3,29.87,South,176,0.0,0.0,40,0.00,SCT,,0.00,WeatherDisplay:10.37,2013-06-15 04:29:00,
2013-06-14 21:30:00,73.1,47.3,29.87,South,176,0.0,0.0,40,0.00,SCT,,0.00,WeatherDisplay:10.37,2013-06-15 04:30:00,
2013-06-14 21:31:00,72.9,47.2,29.87,South,189,0.0,0.0,40,0.00,SCT,,0.00,WeatherDisplay:10.37,2013-06-15 04:31:00,
2013-06-14 21:33:00,72.8,47.1,29.87,South,191,0.0,0.0,40,0.00,SCT,,0.00,WeatherDisplay:10.37,2013-06-15 04:33:00,
2013-06-14 21:35:00,72.6,46.9,29.87,South,191,0.0,0.0,40,0.00,SCT,,0.00,WeatherDisplay:10.37,2013-06-15 04:35:00,
2013-06-14 21:36:00,72.6,46.9,29.88,South,191,0.0,0.0,40,0.00,SCT,,0.00,WeatherDisplay:10.37,2013-06-15 04:36:00,
2013-06-14 21:38:00,72.2,47.2,29.88,SW,217,0.0,0.0,41,0.00,SCT,,0.00,WeatherDisplay:10.37,2013-06-15 04:38:00,
2013-06-14 21:39:00,72.1,47.1,29.87,SW,217,0.0,0.0,41,0.00,SCT,,0.00,WeatherDisplay:10.37,2013-06-15 04:39:00,
2013-06-14 21:41:00,71.8,47.5,29.88,SSW,199,0.0,0.0,42,0.00,SCT,,0.00,WeatherDisplay:10.37,2013-06-15 04:41:00,
2013-06-14 21:42:00,71.7,47.4,29.88,SSW,199,0.0,0.0,42,0.00,SCT,,0.00,WeatherDisplay:10.37,2013-06-15 04:42:00,
2013-06-14 21:43:00,71.3,47.6,29.88,SSW,199,0.0,0.0,43,0.00,SCT,,0.00,WeatherDisplay:10.37,2013-06-15 04:43:00,
2013-06-14 21:45:00,71.1,47.5,29.88,SSW,199,0.0,0.0,43,0.00,SCT,,0.00,WeatherDisplay:10.37,2013-06-15 04:45:00,
2013-06-14 21:46:00,71.0,47.4,29.88,SSE,158,0.0,0.0,43,0.00,SCT,,0.00,WeatherDisplay:10.37,2013-06-15 04:46:00,
2013-06-14 21:47:00,70.9,47.3,29.88,SSE,153,0.0,0.0,43,0.00,SCT,,0.00,WeatherDisplay:10.37,2013-06-15 04:47:00,
2013-06-14 21:49:00,70.9,47.3,29.88,East,96,0.0,0.0,43,0.00,SCT,,0.00,WeatherDisplay:10.37,2013-06-15 04:49:00,
2013-06-14 21:50:00,70.9,47.3,29.88,East,96,0.0,0.0,43,0.00,SCT,,0.00,WeatherDisplay:10.37,2013-06-15 04:50:00,
2013-06-14 21:51:00,71.0,47.4,29.88,SE,143,0.0,0.0,43,0.00,SCT,,0.00,WeatherDisplay:10.37,2013-06-15 04:51:00,
2013-06-14 21:52:00,71.0,47.4,29.88,SE,128,0.0,0.0,43,0.00,SCT,,0.00,WeatherDisplay:10.37,2013-06-15 04:52:00,
2013-06-14 21:53:00,71.0,47.4,29.88,SE,130,0.0,0.0,43,0.00,SCT,,0.00,WeatherDisplay:10.37,2013-06-15 04:53:00,
2013-06-14 21:54:00,71.0,47.4,29.88,South,175,0.0,0.0,43,0.00,SCT,,0.00,WeatherDisplay:10.37,2013-06-15 04:54:00,
2013-06-14 21:55:00,71.1,47.5,29.88,SE,142,0.0,0.0,43,0.00,SCT,,0.00,WeatherDisplay:10.37,2013-06-15 04:55:00,
2013-06-14 21:56:00,71.1,47.5,29.88,South,169,0.0,0.0,43,0.00,SCT,,0.00,WeatherDisplay:10.37,2013-06-15 04:56:00,
2013-06-14 21:57:00,71.1,47.5,29.88,SSW,201,0.0,0.0,43,0.00,SCT,,0.00,WeatherDisplay:10.37,2013-06-15 04:57:00,
2013-06-14 21:58:00,71.1,47.5,29.89,SSE,159,0.0,0.0,43,0.00,SCT,,0.00,WeatherDisplay:10.37,2013-06-15 04:58:00,
2013-06-14 22:00:00,71.0,47.4,29.88,SSE,156,0.0,0.0,43,0.00,SCT,,0.00,WeatherDisplay:10.37,2013-06-15 05:00:00,
2013-06-14 22:01:00,71.0,47.4,29.88,ESE,111,0.0,0.0,43,0.00,SCT,,0.00,WeatherDisplay:10.37,2013-06-15 05:01:00,
2013-06-14 22:02:00,70.7,47.1,29.89,SSE,166,0.0,0.0,43,0.00,SCT,,0.00,WeatherDisplay:10.37,2013-06-15 05:02:00,
2013-06-14 22:04:00,70.6,47.6,29.88,SW,233,0.0,0.0,44,0.00,SCT,,0.00,WeatherDisplay:10.37,2013-06-15 05:04:00,
2013-06-14 22:05:00,70.4,47.4,29.88,SSW,202,0.0,0.0,44,0.00,SCT,,0.00,WeatherDisplay:10.37,2013-06-15 05:05:00,
2013-06-14 22:06:00,70.4,47.4,29.88,SSW,201,0.0,0.0,44,0.00,SCT,,0.00,WeatherDisplay:10.37,2013-06-15 05:06:00,
2013-06-14 22:07:00,70.3,47.3,29.88,SSW,201,0.0,0.0,44,0.00,SCT,,0.00,WeatherDisplay:10.37,2013-06-15 05:07:00,
2013-06-14 22:08:00,70.3,47.3,29.89,SSE,165,0.0,0.0,44,0.00,SCT,,0.00,WeatherDisplay:10.37,2013-06-15 05:08:00,
2013-06-14 22:10:00,70.2,47.9,29.88,SE,131,0.0,0.0,45,0.00,SCT,,0.00,WeatherDisplay:10.37,2013-06-15 05:10:00,
2013-06-14 22:11:00,70.1,47.8,29.88,SE,131,0.0,0.0,45,0.00,SCT,,0.00,WeatherDisplay:10.37,2013-06-15 05:11:00,
2013-06-14 22:12:00,70.1,47.8,29.88,SE,131,0.0,0.0,45,0.00,SCT,,0.00,WeatherDisplay:10.37,2013-06-15 05:12:00,
2013-06-14 22:14:00,70.0,47.7,29.88,SE,131,0.0,0.0,45,0.00,SCT,,0.00,WeatherDisplay:10.37,2013-06-15 05:14:00,
2013-06-14 22:15:00,69.9,47.6,29.88,ESE,121,0.0,0.0,45,0.00,SCT,,0.00,WeatherDisplay:10.37,2013-06-15 05:15:00,
2013-06-14 22:16:00,69.9,47.6,29.88,ESE,105,0.0,0.0,45,0.00,SCT,,0.00,WeatherDisplay:10.37,2013-06-15 05:16:00,
2013-06-14 22:17:00,69.9,47.6,29.88,ESE,104,0.0,0.0,45,0.00,SCT,,0.00,WeatherDisplay:10.37,2013-06-15 05:17:00,
2013-06-14 22:19:00,69.8,47.5,29.89,SE,126,1.2,0.0,45,0.00,SCT,,0.00,WeatherDisplay:10.37,2013-06-15 05:19:00,
2013-06-14 22:21:00,69.7,47.4,29.89,SE,126,1.2,0.0,45,0.00,SCT,,0.00,WeatherDisplay:10.37,2013-06-15 05:21:00,
2013-06-14 22:22:00,69.6,47.3,29.89,SE,142,0.0,0.0,45,0.00,SCT,,0.00,WeatherDisplay:10.37,2013-06-15 05:22:00,
2013-06-14 22:23:00,69.6,47.9,29.89,East,82,0.0,0.0,46,0.00,SCT,,0.00,WeatherDisplay:10.37,2013-06-15 05:23:00,
2013-06-14 22:25:00,69.4,47.7,29.89,SE,133,0.0,0.2,46,0.00,SCT,,0.00,WeatherDisplay:10.37,2013-06-15 05:25:00,
2013-06-14 22:26:00,69.1,47.4,29.89,SE,138,2.3,0.0,46,0.00,SCT,,0.00,WeatherDisplay:10.37,2013-06-15 05:26:00,
2013-06-14 22:27:00,69.1,47.4,29.89,SE,138,2.3,0.0,46,0.00,SCT,,0.00,WeatherDisplay:10.37,2013-06-15 05:27:00,
2013-06-14 22:28:00,69.0,47.9,29.89,SE,138,0.0,0.0,47,0.00,SCT,,0.00,WeatherDisplay:10.37,2013-06-15 05:28:00,
2013-06-14 22:29:00,68.9,47.8,29.89,SE,138,1.2,0.0,47,0.00,SCT,,0.00,WeatherDisplay:10.37,2013-06-15 05:29:00,
2013-06-14 22:31:00,68.8,47.7,29.89,WSW,257,1.2,1.2,47,0.00,SCT,,0.00,WeatherDisplay:10.37,2013-06-15 05:31:00,
2013-06-14 22:32:00,68.7,47.6,29.89,WSW,256,1.2,0.0,47,0.00,SCT,,0.00,WeatherDisplay:10.37,2013-06-15 05:32:00,
2013-06-14 22:33:00,68.6,47.6,29.89,WNW,291,1.0,1.0,47,0.00,SCT,,0.00,WeatherDisplay:10.37,2013-06-15 05:33:00,
2013-06-14 22:34:00,68.6,47.6,29.89,ENE,72,3.5,3.5,47,0.00,SCT,,0.00,WeatherDisplay:10.37,2013-06-15 05:34:00,
2013-06-14 22:36:00,68.5,48.0,29.89,ENE,67,0.0,0.0,48,0.00,SCT,,0.00,WeatherDisplay:10.37,2013-06-15 05:36:00,
2013-06-14 22:37:00,68.5,48.0,29.89,ENE,75,0.0,0.0,48,0.00,SCT,,0.00,WeatherDisplay:10.37,2013-06-15 05:37:00,
2013-06-14 22:39:00,68.4,47.9,29.89,ENE,75,1.2,0.0,48,0.00,SCT,,0.00,WeatherDisplay:10.37,2013-06-15 05:39:00,
2013-06-14 22:41:00,68.4,47.9,29.89,SSW,204,0.0,0.0,48,0.00,SCT,,0.00,WeatherDisplay:10.37,2013-06-15 05:41:00,
2013-06-14 22:42:00,68.3,47.8,29.89,SW,226,2.0,2.0,48,0.00,SCT,,0.00,WeatherDisplay:10.37,2013-06-15 05:42:00,
2013-06-14 22:44:00,67.9,47.5,29.89,SSE,166,1.2,1.2,48,0.00,SCT,,0.00,WeatherDisplay:10.37,2013-06-15 05:44:00,
2013-06-14 22:48:00,67.5,47.7,29.89,SSW,213,3.5,3.5,49,0.00,SCT,,0.00,WeatherDisplay:10.37,2013-06-15 05:48:00,
2013-06-14 22:49:00,67.5,47.7,29.89,SSW,212,1.2,1.2,49,0.00,SCT,,0.00,WeatherDisplay:10.37,2013-06-15 05:49:00,
2013-06-14 22:50:00,67.4,47.6,29.89,SSW,212,1.0,0.0,49,0.00,SCT,,0.00,WeatherDisplay:10.37,2013-06-15 05:50:00,
2013-06-14 22:53:00,67.1,47.8,29.89,SW,215,0.0,0.0,50,0.00,SCT,,0.00,WeatherDisplay:10.37,2013-06-15 05:53:00,
2013-06-14 22:54:00,67.0,47.7,29.89,SW,215,0.0,0.0,50,0.00,SCT,,0.00,WeatherDisplay:10.37,2013-06-15 05:54:00,
2013-06-14 22:57:00,67.0,47.7,29.89,SW,215,1.2,1.2,50,0.00,SCT,,0.00,WeatherDisplay:10.37,2013-06-15 05:57:00,
2013-06-14 22:58:00,66.9,47.6,29.89,SSW,209,1.2,0.0,50,0.00,SCT,,0.00,WeatherDisplay:10.37,2013-06-15 05:58:00,
2013-06-14 23:00:00,66.9,47.6,29.89,SW,215,0.0,1.0,50,0.00,SCT,,0.00,WeatherDisplay:10.37,2013-06-15 06:00:00,
2013-06-14 23:02:00,66.9,47.6,29.89,SSW,209,1.2,0.0,50,0.00,SCT,,0.00,WeatherDisplay:10.37,2013-06-15 06:02:00,
2013-06-14 23:04:00,66.9,47.6,29.88,SSW,209,0.0,0.0,50,0.00,SCT,,0.00,WeatherDisplay:10.37,2013-06-15 06:04:00,
2013-06-14 23:06:00,66.6,47.4,29.88,South,173,1.2,1.2,50,0.00,SCT,,0.00,WeatherDisplay:10.37,2013-06-15 06:06:00,
2013-06-14 23:07:00,66.5,47.3,29.88,SW,216,0.0,0.1,50,0.00,SCT,,0.00,WeatherDisplay:10.37,2013-06-15 06:07:00,
2013-06-14 23:08:00,66.3,47.6,29.89,SW,220,1.2,0.0,51,0.00,SCT,,0.00,WeatherDisplay:10.37,2013-06-15 06:08:00,
2013-06-14 23:10:00,66.3,47.6,29.88,West,260,0.0,0.0,51,0.00,SCT,,0.00,WeatherDisplay:10.37,2013-06-15 06:10:00,
2013-06-14 23:11:00,66.2,47.5,29.89,West,262,1.2,1.2,51,0.00,SCT,,0.00,WeatherDisplay:10.37,2013-06-15 06:11:00,
2013-06-14 23:12:00,66.3,47.6,29.88,WSW,243,1.0,0.0,51,0.00,SCT,,0.00,WeatherDisplay:10.37,2013-06-15 06:12:00,
2013-06-14 23:13:00,66.3,47.6,29.88,SSW,192,1.0,1.0,51,0.00,SCT,,0.00,WeatherDisplay:10.37,2013-06-15 06:13:00,
2013-06-14 23:15:00,66.2,47.5,29.88,WSW,242,0.0,3.0,51,0.00,SCT,,0.00,WeatherDisplay:10.37,2013-06-15 06:15:00,
2013-06-14 23:16:00,66.2,47.5,29.88,SSE,148,1.2,0.0,51,0.00,SCT,,0.00,WeatherDisplay:10.37,2013-06-15 06:16:00,
2013-06-14 23:17:00,66.2,47.5,29.88,SSE,148,0.0,0.0,51,0.00,SCT,,0.00,WeatherDisplay:10.37,2013-06-15 06:17:00,
2013-06-14 23:18:00,66.2,47.5,29.88,SSE,149,0.0,0.0,51,0.00,SCT,,0.00,WeatherDisplay:10.37,2013-06-15 06:18:00,
2013-06-14 23:19:00,66.2,47.5,29.88,SSE,148,0.0,0.0,51,0.00,SCT,,0.00,WeatherDisplay:10.37,2013-06-15 06:19:00,
2013-06-14 23:20:00,66.2,47.0,29.88,SSE,148,0.0,0.0,50,0.00,SCT,,0.00,WeatherDisplay:10.37,2013-06-15 06:20:00,
2013-06-14 23:22:00,66.1,46.9,29.89,SSE,148,0.0,0.0,50,0.00,SCT,,0.00,WeatherDisplay:10.37,2013-06-15 06:22:00,
2013-06-14 23:23:00,66.0,47.3,29.88,SSE,148,0.0,0.0,51,0.00,SCT,,0.00,WeatherDisplay:10.37,2013-06-15 06:23:00,
2013-06-14 23:25:00,66.0,46.8,29.88,SSE,148,0.0,0.0,50,0.00,SCT,,0.00,WeatherDisplay:10.37,2013-06-15 06:25:00,
2013-06-14 23:26:00,66.0,47.3,29.88,SSE,148,0.0,0.0,51,0.00,SCT,,0.00,WeatherDisplay:10.37,2013-06-15 06:26:00,
2013-06-14 23:28:00,66.1,47.4,29.88,SSE,148,0.0,0.0,51,0.00,SCT,,0.00,WeatherDisplay:10.37,2013-06-15 06:28:00,
2013-06-14 23:29:00,66.0,47.3,29.88,SSE,148,0.0,0.0,51,0.00,SCT,,0.00,WeatherDisplay:10.37,2013-06-15 06:29:00,
2013-06-14 23:30:00,66.0,47.3,29.88,SSE,148,0.0,0.0,51,0.00,SCT,,0.00,WeatherDisplay:10.37,2013-06-15 06:30:00,
2013-06-14 23:32:00,65.9,47.3,29.88,SSE,148,0.0,0.0,51,0.00,SCT,,0.00,WeatherDisplay:10.37,2013-06-15 06:32:00,
2013-06-14 23:34:00,65.9,46.7,29.88,SSE,148,0.0,0.0,50,0.00,SCT,,0.00,WeatherDisplay:10.37,2013-06-15 06:34:00,
2013-06-14 23:35:00,65.9,47.3,29.88,SSE,148,0.0,0.0,51,0.00,SCT,,0.00,WeatherDisplay:10.37,2013-06-15 06:35:00,
2013-06-14 23:36:00,65.9,46.7,29.88,SSE,148,0.0,0.0,50,0.00,SCT,,0.00,WeatherDisplay:10.37,2013-06-15 06:36:00,
2013-06-14 23:37:00,65.9,46.7,29.88,SSE,148,0.0,0.0,50,0.00,SCT,,0.00,WeatherDisplay:10.37,2013-06-15 06:37:00,
2013-06-14 23:41:00,65.8,46.6,29.88,SSE,148,0.0,0.0,50,0.00,SCT,,0.00,WeatherDisplay:10.37,2013-06-15 06:41:00,
2013-06-14 23:42:00,65.8,46.6,29.88,SSE,148,0.0,0.0,50,0.00,SCT,,0.00,WeatherDisplay:10.37,2013-06-15 06:42:00,
2013-06-14 23:43:00,65.8,46.6,29.88,SSE,148,0.0,0.0,50,0.00,SCT,,0.00,WeatherDisplay:10.37,2013-06-15 06:43:00,
2013-06-14 23:46:00,65.7,46.5,29.88,SSE,148,0.0,0.0,50,0.00,SCT,,0.00,WeatherDisplay:10.37,2013-06-15 06:46:00,
2013-06-14 23:47:00,65.7,46.5,29.88,SSE,148,0.0,0.0,50,0.00,SCT,,0.00,WeatherDisplay:10.37,2013-06-15 06:47:00,
2013-06-14 23:48:00,65.7,46.5,29.88,SSE,148,0.0,0.0,50,0.00,SCT,,0.00,WeatherDisplay:10.37,2013-06-15 06:48:00,
2013-06-14 23:52:00,65.7,46.5,29.88,SSE,148,0.0,0.0,50,0.00,SCT,,0.00,WeatherDisplay:10.37,2013-06-15 06:52:00,
2013-06-14 23:53:00,65.7,46.0,29.88,SSE,148,0.0,0.0,49,0.00,SCT,,0.00,WeatherDisplay:10.37,2013-06-15 06:53:00,
2013-06-14 23:54:00,65.7,46.5,29.88,SSE,148,0.0,0.0,50,0.00,SCT,,0.00,WeatherDisplay:10.37,2013-06-15 06:54:00,
2013-06-14 23:55:00,65.5,46.4,29.88,SSE,148,0.0,0.0,50,0.00,SCT,,0.00,WeatherDisplay:10.37,2013-06-15 06:55:00,
2013-06-14 23:58:00,65.4,46.3,29.88,SSE,148,0.0,0.0,50,0.00,SCT,,0.00,WeatherDisplay:10.37,2013-06-15 06:58:00,
2013-06-14 23:59:00,65.4,46.3,29.88,SSE,148,0.0,0.0,50,0.00,SCT,,0.00,WeatherDisplay:10.37,2013-06-15 06:59:00,